Observation data for Aiken on 12/09/2018      Previous  Date  Next       Current Mesonet Observations  Soil Data  Daily Summary Page  Observations in Plain Language
KAI1 090600Z 28006KT M08/M08 A3031 RMK A01 T10751083  RH  094%=      5-min Rain = 0
KAI1 090601Z 28006KT M08/M08 A3031 RMK A01 T10751083  RH  094%=      5-min Rain = 0
KAI1 090602Z 28006KT M08/M08 A3031 RMK A01 T10751083  RH  094%=      5-min Rain = 0
KAI1 090603Z 28005KT M08/M08 A3031 RMK A01 T10751083  RH  094%=      5-min Rain = 0
KAI1 090604Z 28005KT M08/M08 A3031 RMK A01 T10751083  RH  094%=      5-min Rain = 0
KAI1 090605Z 29005KT M08/M08 A303 RMK A01 T10751083  RH  094%=      5-min Rain = 0
KAI1 090606Z 29004KT M08/M08 A303 RMK A01 T10761084  RH  094%=      5-min Rain = 0
KAI1 090607Z 29004KT M08/M09 A303 RMK A01 T10771085  RH  094%=      5-min Rain = 0
KAI1 090608Z 29003KT M08/M09 A303 RMK A01 T10781086  RH  094%=      5-min Rain = 0
KAI1 090609Z 29004KT M08/M09 A303 RMK A01 T10781087  RH  094%=      5-min Rain = 0
KAI1 090610Z 30005KT M08/M09 A303 RMK A01 T10791088  RH  093%=      5-min Rain = 0
KAI1 090611Z 29006KT M08/M09 A303 RMK A01 T10801090  RH  093%=      5-min Rain = 0
KAI1 090612Z 29006KT M08/M09 A303 RMK A01 T10811090  RH  093%=      5-min Rain = 0
KAI1 090613Z 29006KT M08/M09 A303 RMK A01 T10811090  RH  093%=      5-min Rain = 0
KAI1 090614Z 29006KT M08/M09 A303 RMK A01 T10801089  RH  094%=      5-min Rain = 0
KAI1 090615Z 28007KT M08/M09 A303 RMK A01 T10791087  RH  094%=      5-min Rain = 0
KAI1 090616Z 29007KT M08/M09 A3031 RMK A01 T10781086  RH  094%=      5-min Rain = 0
KAI1 090617Z 28007KT M08/M09 A3031 RMK A01 T10771085  RH  094%=      5-min Rain = 0
KAI1 090618Z 28007KT M08/M08 A3031 RMK A01 T10771084  RH  094%=      5-min Rain = 0
KAI1 090619Z 28006KT M08/M08 A3031 RMK A01 T10771084  RH  094%=      5-min Rain = 0
KAI1 090620Z 29006KT M08/M08 A3031 RMK A01 T10761084  RH  094%=      5-min Rain = 0
KAI1 090621Z 28006KT M08/M08 A3031 RMK A01 T10761084  RH  094%=      5-min Rain = 0
KAI1 090622Z 28006KT M08/M08 A3031 RMK A01 T10761084  RH  094%=      5-min Rain = 0
KAI1 090623Z 28006KT M08/M08 A3031 RMK A01 T10761084  RH  094%=      5-min Rain = 0
KAI1 090624Z 29006KT M08/M08 A3031 RMK A01 T10761084  RH  094%=      5-min Rain = 0
KAI1 090625Z 28005KT M08/M08 A3031 RMK A01 T10761083  RH  094%=      5-min Rain = 0
KAI1 090626Z 28005KT M08/M08 A3031 RMK A01 T10751083  RH  094%=      5-min Rain = 0
KAI1 090627Z 28005KT M08/M08 A3031 RMK A01 T10751083  RH  094%=      5-min Rain = 0
KAI1 090628Z 28004KT M08/M08 A3031 RMK A01 T10751083  RH  094%=      5-min Rain = 0
KAI1 090629Z 28004KT M08/M08 A3031 RMK A01 T10761084  RH  094%=      5-min Rain = 0
KAI1 090630Z 28004KT M08/M09 A3031 RMK A01 T10761085  RH  094%=      5-min Rain = 0
KAI1 090631Z 28004KT M08/M09 A3031 RMK A01 T10771085  RH  094%=      5-min Rain = 0
KAI1 090632Z 28004KT M08/M09 A3031 RMK A01 T10781086  RH  094%=      5-min Rain = 0
KAI1 090633Z 29004KT M08/M09 A3031 RMK A01 T10791087  RH  094%=      5-min Rain = 0
KAI1 090634Z 29004KT M08/M09 A3031 RMK A01 T10791088  RH  094%=      5-min Rain = 0
KAI1 090635Z 29004KT M08/M09 A3031 RMK A01 T10801088  RH  093%=      5-min Rain = 0
KAI1 090636Z 29004KT M08/M09 A3031 RMK A01 T10801089  RH  093%=      5-min Rain = 0
KAI1 090637Z 29005KT M08/M09 A3031 RMK A01 T10811090  RH  093%=      5-min Rain = 0
KAI1 090638Z 29005KT M08/M09 A3031 RMK A01 T10811090  RH  093%=      5-min Rain = 0
KAI1 090639Z 29005KT M08/M09 A3031 RMK A01 T10821091  RH  093%=      5-min Rain = 0
KAI1 090640Z 28005KT M08/M09 A3031 RMK A01 T10821091  RH  093%=      5-min Rain = 0
KAI1 090641Z 28005KT M08/M09 A3031 RMK A01 T10821091  RH  093%=      5-min Rain = 0
KAI1 090642Z 29005KT M08/M09 A3031 RMK A01 T10821091  RH  093%=      5-min Rain = 0
KAI1 090643Z 28004KT M08/M09 A3031 RMK A01 T10821091  RH  093%=      5-min Rain = 0
KAI1 090644Z 29004KT M08/M09 A3031 RMK A01 T10831091  RH  093%=      5-min Rain = 0
KAI1 090645Z 29004KT M08/M09 A3031 RMK A01 T10831091  RH  093%=      5-min Rain = 0
KAI1 090646Z 29004KT M08/M09 A3031 RMK A01 T10831092  RH  093%=      5-min Rain = 0
KAI1 090647Z 29004KT M08/M09 A3031 RMK A01 T10831092  RH  093%=      5-min Rain = 0
KAI1 090648Z 28004KT M08/M09 A3031 RMK A01 T10831092  RH  093%=      5-min Rain = 0
KAI1 090649Z 28004KT M08/M09 A3031 RMK A01 T10831092  RH  093%=      5-min Rain = 0
KAI1 090650Z 29004KT M08/M09 A3031 RMK A01 T10831092  RH  093%=      5-min Rain = 0
KAI1 090651Z 29004KT M08/M09 A303 RMK A01 T10841093  RH  093%=      5-min Rain = 0
KAI1 090652Z 29004KT M08/M09 A303 RMK A01 T10841093  RH  093%=      5-min Rain = 0
KAI1 090653Z 29004KT M09/M09 A303 RMK A01 T10851094  RH  093%=      5-min Rain = 0
KAI1 090654Z 28004KT M09/M09 A303 RMK A01 T10851094  RH  093%=      5-min Rain = 0
KAI1 090655Z 28004KT M09/M09 A303 RMK A01 T10851094  RH  093%=      5-min Rain = 0
KAI1 090656Z 28004KT M09/M10 A303 RMK A01 T10861095  RH  093%=      5-min Rain = 0
KAI1 090657Z 29003KT M09/M10 A303 RMK A01 T10861095  RH  093%=      5-min Rain = 0
KAI1 090658Z 29003KT M09/M10 A303 RMK A01 T10861095  RH  093%=      5-min Rain = 0
KAI1 090659Z 29003KT M09/M10 A303 RMK A01 T10861095  RH  093%=      5-min Rain = 0
KAI1 090700Z 29003KT M09/M10 A303 RMK A01 T10861095  RH  093%=      5-min Rain = 0
KAI1 090701Z 29003KT M09/M09 A303 RMK A01 T10861094  RH  093%=      5-min Rain = 0
KAI1 090702Z 29003KT M09/M09 A303 RMK A01 T10851094  RH  093%=      5-min Rain = 0
KAI1 090703Z 29003KT M09/M09 A303 RMK A01 T10851094  RH  094%=      5-min Rain = 0
KAI1 090704Z 29003KT M08/M09 A303 RMK A01 T10841093  RH  094%=      5-min Rain = 0
KAI1 090705Z 29004KT M08/M09 A303 RMK A01 T10841092  RH  094%=      5-min Rain = 0
KAI1 090706Z 29004KT M08/M09 A303 RMK A01 T10831092  RH  094%=      5-min Rain = 0
KAI1 090707Z 29004KT M08/M09 A303 RMK A01 T10831091  RH  094%=      5-min Rain = 0
KAI1 090708Z 29004KT M08/M09 A303 RMK A01 T10821090  RH  094%=      5-min Rain = 0
KAI1 090709Z 29004KT M08/M09 A303 RMK A01 T10831091  RH  094%=      5-min Rain = 0
KAI1 090710Z 30004KT M08/M09 A303 RMK A01 T10831091  RH  094%=      5-min Rain = 0
KAI1 090711Z 30004KT M08/M09 A303 RMK A01 T10821091  RH  094%=      5-min Rain = 0
KAI1 090712Z 30004KT M08/M09 A303 RMK A01 T10831091  RH  094%=      5-min Rain = 0
KAI1 090713Z 30004KT M08/M09 A303 RMK A01 T10821091  RH  094%=      5-min Rain = 0
KAI1 090714Z 30004KT M08/M09 A303 RMK A01 T10831091  RH  094%=      5-min Rain = 0
KAI1 090715Z 30004KT M08/M09 A303 RMK A01 T10831092  RH  094%=      5-min Rain = 0
KAI1 090716Z 30004KT M08/M09 A303 RMK A01 T10841093  RH  093%=      5-min Rain = 0
KAI1 090717Z 30004KT M08/M09 A303 RMK A01 T10841093  RH  093%=      5-min Rain = 0
KAI1 090718Z 30004KT M09/M09 A303 RMK A01 T10851094  RH  093%=      5-min Rain = 0
KAI1 090719Z 30004KT M09/M10 A303 RMK A01 T10851095  RH  093%=      5-min Rain = 0
KAI1 090720Z 30004KT M09/M09 A303 RMK A01 T10851094  RH  093%=      5-min Rain = 0
KAI1 090721Z 31004KT M09/M10 A303 RMK A01 T10861095  RH  093%=      5-min Rain = 0
KAI1 090722Z 31004KT M09/M10 A303 RMK A01 T10861095  RH  093%=      5-min Rain = 0
KAI1 090723Z 31004KT M09/M10 A303 RMK A01 T10861096  RH  093%=      5-min Rain = 0
KAI1 090724Z 32004KT M09/M10 A303 RMK A01 T10871097  RH  093%=      5-min Rain = 0
KAI1 090725Z 32004KT M09/M10 A303 RMK A01 T10881098  RH  093%=      5-min Rain = 0
KAI1 090726Z 32004KT M09/M10 A303 RMK A01 T10891099  RH  093%=      5-min Rain = 0
KAI1 090727Z 32004KT M09/M10 A303 RMK A01 T10891099  RH  093%=      5-min Rain = 0
KAI1 090728Z 32004KT M09/M10 A303 RMK A01 T10901100  RH  093%=      5-min Rain = 0
KAI1 090729Z 32004KT M09/M10 A303 RMK A01 T10901100  RH  093%=      5-min Rain = 0
KAI1 090730Z 32004KT M09/M10 A303 RMK A01 T10901099  RH  093%=      5-min Rain = 0
KAI1 090731Z 32003KT M09/M10 A303 RMK A01 T10901100  RH  093%=      5-min Rain = 0
KAI1 090732Z 31004KT M09/M10 A303 RMK A01 T10901099  RH  093%=      5-min Rain = 0
KAI1 090733Z 31004KT M09/M10 A303 RMK A01 T10891098  RH  093%=      5-min Rain = 0
KAI1 090734Z 31004KT M09/M10 A303 RMK A01 T10891098  RH  093%=      5-min Rain = 0
KAI1 090735Z 31004KT M09/M10 A303 RMK A01 T10881097  RH  093%=      5-min Rain = 0
KAI1 090736Z 31003KT M09/M10 A303 RMK A01 T10881097  RH  093%=      5-min Rain = 0
KAI1 090737Z 31003KT M09/M10 A303 RMK A01 T10881097  RH  093%=      5-min Rain = 0
KAI1 090738Z 31003KT M09/M10 A303 RMK A01 T10871096  RH  094%=      5-min Rain = 0
KAI1 090739Z 31004KT M09/M10 A303 RMK A01 T10871095  RH  094%=      5-min Rain = 0
KAI1 090740Z 30003KT M09/M10 A303 RMK A01 T10861095  RH  094%=      5-min Rain = 0
KAI1 090741Z 30003KT M09/M09 A303 RMK A01 T10861094  RH  094%=      5-min Rain = 0
KAI1 090742Z 30004KT M09/M09 A303 RMK A01 T10861094  RH  094%=      5-min Rain = 0
KAI1 090743Z 31004KT M09/M09 A3029 RMK A01 T10861094  RH  094%=      5-min Rain = 0
KAI1 090744Z 31004KT M09/M10 A3029 RMK A01 T10861095  RH  093%=      5-min Rain = 0
KAI1 090745Z 31004KT M09/M10 A3029 RMK A01 T10871096  RH  093%=      5-min Rain = 0
KAI1 090746Z 31004KT M09/M10 A3029 RMK A01 T10881097  RH  093%=      5-min Rain = 0
KAI1 090747Z 31004KT M09/M10 A3029 RMK A01 T10881098  RH  093%=      5-min Rain = 0
KAI1 090748Z 31004KT M09/M10 A3029 RMK A01 T10891098  RH  093%=      5-min Rain = 0
KAI1 090749Z 31004KT M09/M10 A3029 RMK A01 T10891098  RH  093%=      5-min Rain = 0
KAI1 090750Z 31004KT M09/M10 A3029 RMK A01 T10891099  RH  093%=      5-min Rain = 0
KAI1 090751Z 31004KT M09/M10 A3029 RMK A01 T10891099  RH  093%=      5-min Rain = 0
KAI1 090752Z 31004KT M09/M10 A3029 RMK A01 T10891099  RH  093%=      5-min Rain = 0
KAI1 090753Z 31004KT M09/M10 A3029 RMK A01 T10891099  RH  093%=      5-min Rain = 0
KAI1 090754Z 31004KT M09/M10 A3029 RMK A01 T10891098  RH  093%=      5-min Rain = 0
KAI1 090755Z 31004KT M09/M10 A3029 RMK A01 T10891098  RH  093%=      5-min Rain = 0
KAI1 090756Z 31004KT M09/M10 A3029 RMK A01 T10891098  RH  093%=      5-min Rain = 0
KAI1 090757Z 31004KT M09/M10 A3029 RMK A01 T10881097  RH  093%=      5-min Rain = 0
KAI1 090758Z 31004KT M09/M10 A3029 RMK A01 T10881097  RH  093%=      5-min Rain = 0
KAI1 090759Z 31004KT M09/M10 A3029 RMK A01 T10881097  RH  093%=      5-min Rain = 0
KAI1 090800Z 31004KT M09/M10 A303 RMK A01 T10881097  RH  093%=      5-min Rain = 0
KAI1 090801Z 30004KT M09/M10 A303 RMK A01 T10881097  RH  093%=      5-min Rain = 0
KAI1 090802Z 30004KT M09/M10 A303 RMK A01 T10871096  RH  094%=      5-min Rain = 0
KAI1 090803Z 30004KT M09/M10 A303 RMK A01 T10871095  RH  094%=      5-min Rain = 0
KAI1 090804Z 30004KT M09/M09 A303 RMK A01 T10861094  RH  094%=      5-min Rain = 0
KAI1 090805Z 30003KT M09/M10 A303 RMK A01 T10861095  RH  094%=      5-min Rain = 0
KAI1 090806Z 30003KT M09/M10 A3029 RMK A01 T10861095  RH  094%=      5-min Rain = 0
KAI1 090807Z 30004KT M09/M10 A3029 RMK A01 T10871095  RH  093%=      5-min Rain = 0
KAI1 090808Z 29004KT M09/M10 A303 RMK A01 T10871096  RH  093%=      5-min Rain = 0
KAI1 090809Z 30004KT M09/M10 A303 RMK A01 T10881097  RH  093%=      5-min Rain = 0
KAI1 090810Z 30004KT M09/M10 A303 RMK A01 T10881098  RH  093%=      5-min Rain = 0
KAI1 090811Z 30004KT M09/M10 A303 RMK A01 T10891099  RH  093%=      5-min Rain = 0
KAI1 090812Z 30004KT M09/M10 A303 RMK A01 T10901100  RH  093%=      5-min Rain = 0
KAI1 090813Z 30004KT M09/M10 A303 RMK A01 T10911101  RH  093%=      5-min Rain = 0
KAI1 090814Z 30004KT M09/M10 A303 RMK A01 T10921102  RH  092%=      5-min Rain = 0
KAI1 090815Z 30004KT M09/M10 A303 RMK A01 T10931103  RH  092%=      5-min Rain = 0
KAI1 090816Z 31004KT M09/M10 A3029 RMK A01 T10941104  RH  092%=      5-min Rain = 0
KAI1 090817Z 31004KT M10/M11 A3029 RMK A01 T10951105  RH  092%=      5-min Rain = 0
KAI1 090818Z 31004KT M10/M11 A3029 RMK A01 T10951105  RH  092%=      5-min Rain = 0
KAI1 090819Z 31004KT M10/M11 A3029 RMK A01 T10961106  RH  092%=      5-min Rain = 0
KAI1 090820Z 32004KT M10/M11 A3029 RMK A01 T10961107  RH  092%=      5-min Rain = 0
KAI1 090821Z 32004KT M10/M11 A3029 RMK A01 T10961106  RH  092%=      5-min Rain = 0
KAI1 090822Z 31004KT M10/M11 A3029 RMK A01 T10951105  RH  092%=      5-min Rain = 0
KAI1 090823Z 31004KT M10/M10 A3029 RMK A01 T10951104  RH  093%=      5-min Rain = 0
KAI1 090824Z 31004KT M09/M10 A3029 RMK A01 T10941103  RH  093%=      5-min Rain = 0
KAI1 090825Z 31004KT M09/M10 A3029 RMK A01 T10931102  RH  093%=      5-min Rain = 0
KAI1 090826Z 31004KT M09/M10 A3029 RMK A01 T10931102  RH  093%=      5-min Rain = 0
KAI1 090827Z 31004KT M09/M10 A3029 RMK A01 T10921101  RH  093%=      5-min Rain = 0
KAI1 090828Z 31004KT M09/M10 A3029 RMK A01 T10921101  RH  093%=      5-min Rain = 0
KAI1 090829Z 30004KT M09/M10 A3029 RMK A01 T10921101  RH  093%=      5-min Rain = 0
KAI1 090830Z 30004KT M09/M10 A303 RMK A01 T10921101  RH  093%=      5-min Rain = 0
KAI1 090831Z 30004KT M09/M10 A303 RMK A01 T10931102  RH  093%=      5-min Rain = 0
KAI1 090832Z 31004KT M09/M10 A303 RMK A01 T10931102  RH  093%=      5-min Rain = 0
KAI1 090833Z 31004KT M09/M10 A303 RMK A01 T10941103  RH  093%=      5-min Rain = 0
KAI1 090834Z 31004KT M09/M10 A303 RMK A01 T10941104  RH  093%=      5-min Rain = 0
KAI1 090835Z 31004KT M09/M10 A303 RMK A01 T10941104  RH  093%=      5-min Rain = 0
KAI1 090836Z 31004KT M10/M11 A303 RMK A01 T10951105  RH  092%=      5-min Rain = 0
KAI1 090837Z 31003KT M10/M11 A303 RMK A01 T10951105  RH  092%=      5-min Rain = 0
KAI1 090838Z 30003KT M10/M11 A303 RMK A01 T10951106  RH  092%=      5-min Rain = 0
KAI1 090839Z 30003KT M10/M11 A303 RMK A01 T10961106  RH  092%=      5-min Rain = 0
KAI1 090840Z 30003KT M10/M11 A3029 RMK A01 T10961107  RH  092%=      5-min Rain = 0
KAI1 090841Z 31003KT M10/M11 A3029 RMK A01 T10971108  RH  092%=      5-min Rain = 0
KAI1 090842Z 31003KT M10/M11 A3029 RMK A01 T10971108  RH  092%=      5-min Rain = 0
KAI1 090843Z 31003KT M10/M11 A3029 RMK A01 T10971108  RH  092%=      5-min Rain = 0
KAI1 090844Z 31003KT M10/M11 A303 RMK A01 T10981108  RH  092%=      5-min Rain = 0
KAI1 090845Z 31003KT M10/M11 A303 RMK A01 T10971108  RH  092%=      5-min Rain = 0
KAI1 090846Z 31004KT M10/M11 A303 RMK A01 T10971108  RH  092%=      5-min Rain = 0
KAI1 090847Z 31004KT M10/M11 A303 RMK A01 T10971107  RH  092%=      5-min Rain = 0
KAI1 090848Z 31004KT M10/M11 A303 RMK A01 T10971107  RH  093%=      5-min Rain = 0
KAI1 090849Z 31004KT M10/M11 A303 RMK A01 T10971107  RH  092%=      5-min Rain = 0
KAI1 090850Z 31004KT M10/M11 A3029 RMK A01 T10971107  RH  093%=      5-min Rain = 0
KAI1 090851Z 30004KT M10/M11 A3029 RMK A01 T10961106  RH  093%=      5-min Rain = 0
KAI1 090852Z 31004KT M10/M11 A3029 RMK A01 T10961105  RH  093%=      5-min Rain = 0
KAI1 090853Z 31004KT M10/M11 A3029 RMK A01 T10951105  RH  093%=      5-min Rain = 0
KAI1 090854Z 31004KT M10/M10 A3029 RMK A01 T10951104  RH  093%=      5-min Rain = 0
KAI1 090855Z 31004KT M09/M10 A3029 RMK A01 T10931102  RH  093%=      5-min Rain = 0
KAI1 090856Z 31004KT M09/M10 A3029 RMK A01 T10921101  RH  093%=      5-min Rain = 0
KAI1 090857Z 31004KT M09/M10 A3029 RMK A01 T10911100  RH  094%=      5-min Rain = 0
KAI1 090858Z 31004KT M09/M10 A3029 RMK A01 T10901098  RH  094%=      5-min Rain = 0
KAI1 090859Z 31004KT M09/M10 A3029 RMK A01 T10891098  RH  094%=      5-min Rain = 0
KAI1 090900Z 31004KT M09/M10 A3029 RMK A01 T10891097  RH  094%=      5-min Rain = 0
KAI1 090901Z 31004KT M09/M10 A3029 RMK A01 T10881096  RH  094%=      5-min Rain = 0
KAI1 090902Z 31004KT M09/M10 A3029 RMK A01 T10891097  RH  094%=      5-min Rain = 0
KAI1 090903Z 31004KT M09/M10 A3029 RMK A01 T10881097  RH  094%=      5-min Rain = 0
KAI1 090904Z 31004KT M09/M10 A3029 RMK A01 T10881097  RH  094%=      5-min Rain = 0
KAI1 090905Z 31004KT M09/M10 A3029 RMK A01 T10891098  RH  093%=      5-min Rain = 0
KAI1 090906Z 30004KT M09/M10 A3029 RMK A01 T10891098  RH  093%=      5-min Rain = 0
KAI1 090907Z 30004KT M09/M10 A3029 RMK A01 T10891099  RH  093%=      5-min Rain = 0
KAI1 090908Z 30004KT M09/M10 A3029 RMK A01 T10901099  RH  093%=      5-min Rain = 0
KAI1 090909Z 30004KT M09/M10 A3029 RMK A01 T10901099  RH  093%=      5-min Rain = 0
KAI1 090910Z 30004KT M09/M10 A3029 RMK A01 T10901099  RH  093%=      5-min Rain = 0
KAI1 090911Z 30004KT M09/M10 A3029 RMK A01 T10901099  RH  093%=      5-min Rain = 0
KAI1 090912Z 30003KT M09/M10 A3029 RMK A01 T10901099  RH  093%=      5-min Rain = 0
KAI1 090913Z 30003KT M09/M10 A303 RMK A01 T10901100  RH  093%=      5-min Rain = 0
KAI1 090914Z 30003KT M09/M10 A303 RMK A01 T10901100  RH  093%=      5-min Rain = 0
KAI1 090915Z 30003KT M09/M10 A303 RMK A01 T10911100  RH  093%=      5-min Rain = 0
KAI1 090916Z 29003KT M09/M10 A303 RMK A01 T10911100  RH  093%=      5-min Rain = 0
KAI1 090917Z 29003KT M09/M10 A303 RMK A01 T10911100  RH  093%=      5-min Rain = 0
KAI1 090918Z 29003KT M09/M10 A303 RMK A01 T10911100  RH  093%=      5-min Rain = 0
KAI1 090919Z 30001KT M09/M10 A303 RMK A01 T10911100  RH  093%=      5-min Rain = 0
KAI1 090920Z 29002KT M09/M10 A303 RMK A01 T10911100  RH  093%=      5-min Rain = 0
KAI1 090921Z 28002KT M09/M10 A303 RMK A01 T10921102  RH  093%=      5-min Rain = 0
KAI1 090922Z 30003KT M09/M10 A303 RMK A01 T10931103  RH  092%=      5-min Rain = 0
KAI1 090923Z 30003KT M10/M11 A303 RMK A01 T10961107  RH  092%=      5-min Rain = 0
KAI1 090924Z 30003KT M10/M11 A303 RMK A01 T10991110  RH  091%=      5-min Rain = 0
KAI1 090925Z 29003KT M10/M11 A303 RMK A01 T11001112  RH  091%=      5-min Rain = 0
KAI1 090926Z 28002KT M10/M11 A303 RMK A01 T11021114  RH  091%=      5-min Rain = 0
KAI1 090927Z 29003KT M10/M12 A303 RMK A01 T11041116  RH  091%=      5-min Rain = 0
KAI1 090928Z 30003KT M11/M12 A303 RMK A01 T11051118  RH  091%=      5-min Rain = 0
KAI1 090929Z 30003KT M11/M12 A303 RMK A01 T11061119  RH  091%=      5-min Rain = 0
KAI1 090930Z 30003KT M11/M12 A303 RMK A01 T11071119  RH  091%=      5-min Rain = 0
KAI1 090931Z 31003KT M11/M12 A303 RMK A01 T11071119  RH  091%=      5-min Rain = 0
KAI1 090932Z 31003KT M11/M12 A303 RMK A01 T11061117  RH  091%=      5-min Rain = 0
KAI1 090933Z 30004KT M11/M12 A303 RMK A01 T11051116  RH  092%=      5-min Rain = 0
KAI1 090934Z 29003KT M10/M12 A303 RMK A01 T11041115  RH  092%=      5-min Rain = 0
KAI1 090935Z 30003KT M10/M11 A303 RMK A01 T11041114  RH  092%=      5-min Rain = 0
KAI1 090936Z 30003KT M10/M12 A303 RMK A01 T11041115  RH  092%=      5-min Rain = 0
KAI1 090937Z 31004KT M10/M11 A303 RMK A01 T11041114  RH  092%=      5-min Rain = 0
KAI1 090938Z 31004KT M10/M11 A303 RMK A01 T11021112  RH  092%=      5-min Rain = 0
KAI1 090939Z 31004KT M10/M11 A303 RMK A01 T11011110  RH  093%=      5-min Rain = 0
KAI1 090940Z 31003KT M10/M11 A303 RMK A01 T10991108  RH  093%=      5-min Rain = 0
KAI1 090941Z 31003KT M10/M11 A303 RMK A01 T10991108  RH  093%=      5-min Rain = 0
KAI1 090942Z 31003KT M10/M11 A303 RMK A01 T10981107  RH  093%=      5-min Rain = 0
KAI1 090943Z 31003KT M10/M11 A303 RMK A01 T10971106  RH  093%=      5-min Rain = 0
KAI1 090944Z 31003KT M10/M11 A303 RMK A01 T10961105  RH  093%=      5-min Rain = 0
KAI1 090945Z 31003KT M10/M11 A303 RMK A01 T10961105  RH  093%=      5-min Rain = 0
KAI1 090946Z 31003KT M10/M11 A303 RMK A01 T10971107  RH  093%=      5-min Rain = 0
KAI1 090947Z 31003KT M10/M11 A303 RMK A01 T10981107  RH  093%=      5-min Rain = 0
KAI1 090948Z 31004KT M10/M11 A303 RMK A01 T10971106  RH  093%=      5-min Rain = 0
KAI1 090949Z 31003KT M10/M11 A303 RMK A01 T10951105  RH  093%=      5-min Rain = 0
KAI1 090950Z 31003KT M10/M10 A303 RMK A01 T10951104  RH  093%=      5-min Rain = 0
KAI1 090951Z 32003KT M09/M10 A303 RMK A01 T10941103  RH  093%=      5-min Rain = 0
KAI1 090952Z 32003KT M09/M10 A303 RMK A01 T10931101  RH  094%=      5-min Rain = 0
KAI1 090953Z 31003KT M09/M10 A303 RMK A01 T10921101  RH  094%=      5-min Rain = 0
KAI1 090954Z 31003KT M09/M10 A303 RMK A01 T10921100  RH  094%=      5-min Rain = 0
KAI1 090955Z 31003KT M09/M10 A303 RMK A01 T10911100  RH  094%=      5-min Rain = 0
KAI1 090956Z 31003KT M09/M10 A303 RMK A01 T10901099  RH  094%=      5-min Rain = 0
KAI1 090957Z 30002KT M09/M10 A303 RMK A01 T10901098  RH  094%=      5-min Rain = 0
KAI1 090958Z 31003KT M09/M10 A303 RMK A01 T10901098  RH  094%=      5-min Rain = 0
KAI1 090959Z 31003KT M09/M10 A303 RMK A01 T10901098  RH  094%=      5-min Rain = 0
KAI1 091000Z 31002KT M09/M10 A303 RMK A01 T10901099  RH  093%=      5-min Rain = 0
KAI1 091001Z 31002KT M09/M10 A303 RMK A01 T10901099  RH  093%=      5-min Rain = 0
KAI1 091002Z 31002KT M09/M10 A303 RMK A01 T10901099  RH  093%=      5-min Rain = 0
KAI1 091003Z 31002KT M09/M10 A303 RMK A01 T10901099  RH  093%=      5-min Rain = 0
KAI1 091004Z 31002KT M09/M10 A303 RMK A01 T10901099  RH  093%=      5-min Rain = 0
KAI1 091005Z 31002KT M09/M10 A303 RMK A01 T10911100  RH  093%=      5-min Rain = 0
KAI1 091006Z 31002KT M09/M10 A303 RMK A01 T10921101  RH  093%=      5-min Rain = 0
KAI1 091007Z 31002KT M09/M10 A303 RMK A01 T10921102  RH  093%=      5-min Rain = 0
KAI1 091008Z 31002KT M09/M10 A303 RMK A01 T10921102  RH  093%=      5-min Rain = 0
KAI1 091009Z 31002KT M09/M10 A303 RMK A01 T10931103  RH  092%=      5-min Rain = 0
KAI1 091010Z 31002KT M09/M10 A303 RMK A01 T10931103  RH  092%=      5-min Rain = 0
KAI1 091011Z 31002KT M09/M10 A303 RMK A01 T10931104  RH  092%=      5-min Rain = 0
KAI1 091012Z 31002KT M09/M10 A303 RMK A01 T10941104  RH  093%=      5-min Rain = 0
KAI1 091013Z 31002KT M09/M10 A303 RMK A01 T10941104  RH  093%=      5-min Rain = 0
KAI1 091014Z 31002KT M09/M10 A303 RMK A01 T10941104  RH  093%=      5-min Rain = 0
KAI1 091015Z 32002KT M09/M10 A303 RMK A01 T10941103  RH  093%=      5-min Rain = 0
KAI1 091016Z 32002KT M09/M10 A303 RMK A01 T10931102  RH  093%=      5-min Rain = 0
KAI1 091017Z 32002KT M09/M10 A3029 RMK A01 T10921101  RH  093%=      5-min Rain = 0
KAI1 091018Z 31002KT M09/M10 A3029 RMK A01 T10911100  RH  093%=      5-min Rain = 0
KAI1 091019Z 32002KT M09/M10 A3029 RMK A01 T10901098  RH  094%=      5-min Rain = 0
KAI1 091020Z 32002KT M09/M10 A3029 RMK A01 T10891097  RH  094%=      5-min Rain = 0
KAI1 091021Z 32002KT M09/M10 A3029 RMK A01 T10891097  RH  094%=      5-min Rain = 0
KAI1 091022Z 32002KT M09/M10 A303 RMK A01 T10881097  RH  094%=      5-min Rain = 0
KAI1 091023Z 32002KT M09/M10 A303 RMK A01 T10891098  RH  093%=      5-min Rain = 0
KAI1 091024Z 31002KT M09/M10 A3029 RMK A01 T10901099  RH  093%=      5-min Rain = 0
KAI1 091025Z 32002KT M09/M10 A3029 RMK A01 T10901099  RH  093%=      5-min Rain = 0
KAI1 091026Z 32002KT M09/M10 A3029 RMK A01 T10901099  RH  093%=      5-min Rain = 0
KAI1 091027Z 31002KT M09/M10 A3029 RMK A01 T10881097  RH  093%=      5-min Rain = 0
KAI1 091028Z 31003KT M09/M10 A3029 RMK A01 T10871096  RH  094%=      5-min Rain = 0
KAI1 091029Z 31003KT M09/M10 A3029 RMK A01 T10871096  RH  094%=      5-min Rain = 0
KAI1 091030Z 31003KT M09/M10 A303 RMK A01 T10871095  RH  094%=      5-min Rain = 0
KAI1 091031Z 32003KT M09/M10 A303 RMK A01 T10871096  RH  094%=      5-min Rain = 0
KAI1 091032Z 32003KT M09/M10 A303 RMK A01 T10881096  RH  093%=      5-min Rain = 0
KAI1 091033Z 32003KT M09/M10 A303 RMK A01 T10871095  RH  094%=      5-min Rain = 0
KAI1 091034Z 32003KT M09/M10 A303 RMK A01 T10861095  RH  094%=      5-min Rain = 0
KAI1 091035Z 32003KT M09/M10 A303 RMK A01 T10861095  RH  094%=      5-min Rain = 0
KAI1 091036Z 32003KT M09/M10 A3029 RMK A01 T10871096  RH  093%=      5-min Rain = 0
KAI1 091037Z 32003KT M09/M10 A3029 RMK A01 T10881097  RH  093%=      5-min Rain = 0
KAI1 091038Z 32003KT M09/M10 A3029 RMK A01 T10881097  RH  093%=      5-min Rain = 0
KAI1 091039Z 32003KT M09/M10 A3029 RMK A01 T10901100  RH  093%=      5-min Rain = 0
KAI1 091040Z 32003KT M09/M10 A3029 RMK A01 T10931103  RH  092%=      5-min Rain = 0
KAI1 091041Z 32003KT M10/M11 A3029 RMK A01 T10951106  RH  092%=      5-min Rain = 0
KAI1 091042Z 32003KT M10/M11 A3029 RMK A01 T10961108  RH  091%=      5-min Rain = 0
KAI1 091043Z 32003KT M10/M11 A3029 RMK A01 T10981110  RH  091%=      5-min Rain = 0
KAI1 091044Z 32003KT M10/M11 A3029 RMK A01 T10991111  RH  091%=      5-min Rain = 0
KAI1 091045Z 32003KT M10/M11 A3029 RMK A01 T11001112  RH  091%=      5-min Rain = 0
KAI1 091046Z 32003KT M10/M11 A3029 RMK A01 T11011113  RH  091%=      5-min Rain = 0
KAI1 091047Z 32003KT M10/M11 A3029 RMK A01 T11021114  RH  091%=      5-min Rain = 0
KAI1 091048Z 32003KT M10/M11 A3029 RMK A01 T11021114  RH  091%=      5-min Rain = 0
KAI1 091049Z 32003KT M10/M11 A3029 RMK A01 T11021114  RH  091%=      5-min Rain = 0
KAI1 091050Z 32003KT M10/M11 A3029 RMK A01 T11021114  RH  091%=      5-min Rain = 0
KAI1 091051Z 32003KT M10/M11 A3029 RMK A01 T11021113  RH  091%=      5-min Rain = 0
KAI1 091052Z 32003KT M10/M11 A3029 RMK A01 T11021113  RH  092%=      5-min Rain = 0
KAI1 091053Z 32003KT M10/M11 A3029 RMK A01 T11021113  RH  092%=      5-min Rain = 0
KAI1 091054Z 32003KT M10/M11 A3029 RMK A01 T11011112  RH  092%=      5-min Rain = 0
KAI1 091055Z 32003KT M10/M11 A3029 RMK A01 T11011112  RH  092%=      5-min Rain = 0
KAI1 091056Z 32003KT M10/M11 A3029 RMK A01 T11011112  RH  092%=      5-min Rain = 0
KAI1 091057Z 32003KT M10/M11 A3029 RMK A01 T11011111  RH  092%=      5-min Rain = 0
KAI1 091058Z 32003KT M10/M11 A3029 RMK A01 T11011111  RH  092%=      5-min Rain = 0
KAI1 091059Z 32003KT M10/M11 A3029 RMK A01 T11001110  RH  092%=      5-min Rain = 0
KAI1 091100Z 32003KT M10/M11 A3029 RMK A01 T10991109  RH  093%=      5-min Rain = 0
KAI1 091101Z 33003KT M10/M11 A3029 RMK A01 T10971106  RH  093%=      5-min Rain = 0
KAI1 091102Z 33003KT M10/M11 A3029 RMK A01 T10961105  RH  093%=      5-min Rain = 0
KAI1 091103Z 33003KT M10/M10 A3029 RMK A01 T10951103  RH  094%=      5-min Rain = 0
KAI1 091104Z 33003KT M09/M10 A3029 RMK A01 T10941102  RH  094%=      5-min Rain = 0
KAI1 091105Z 33003KT M09/M10 A3029 RMK A01 T10931101  RH  094%=      5-min Rain = 0
KAI1 091106Z 33003KT M09/M10 A3029 RMK A01 T10921100  RH  094%=      5-min Rain = 0
KAI1 091107Z 33003KT M09/M10 A3029 RMK A01 T10921100  RH  094%=      5-min Rain = 0
KAI1 091108Z 33003KT M09/M10 A3029 RMK A01 T10911100  RH  094%=      5-min Rain = 0
KAI1 091109Z 33003KT M09/M10 A3029 RMK A01 T10921100  RH  093%=      5-min Rain = 0
KAI1 091110Z 33003KT M09/M10 A303 RMK A01 T10921101  RH  093%=      5-min Rain = 0
KAI1 091111Z 33003KT M09/M10 A303 RMK A01 T10921101  RH  093%=      5-min Rain = 0
KAI1 091112Z 33003KT M09/M10 A303 RMK A01 T10921101  RH  093%=      5-min Rain = 0
KAI1 091113Z 32003KT M09/M10 A303 RMK A01 T10921102  RH  093%=      5-min Rain = 0
KAI1 091114Z 32003KT M09/M10 A303 RMK A01 T10921101  RH  093%=      5-min Rain = 0
KAI1 091115Z 32003KT M09/M10 A303 RMK A01 T10911100  RH  093%=      5-min Rain = 0
KAI1 091116Z 32003KT M09/M10 A303 RMK A01 T10911100  RH  093%=      5-min Rain = 0
KAI1 091117Z 32003KT M09/M10 A303 RMK A01 T10911100  RH  093%=      5-min Rain = 0
KAI1 091118Z 32003KT M09/M10 A303 RMK A01 T10911100  RH  093%=      5-min Rain = 0
KAI1 091119Z 32003KT M09/M10 A303 RMK A01 T10911100  RH  093%=      5-min Rain = 0
KAI1 091120Z 32003KT M09/M10 A303 RMK A01 T10901100  RH  093%=      5-min Rain = 0
KAI1 091121Z 32003KT M09/M10 A303 RMK A01 T10911100  RH  093%=      5-min Rain = 0
KAI1 091122Z 32003KT M09/M10 A303 RMK A01 T10911100  RH  093%=      5-min Rain = 0
KAI1 091123Z 32003KT M09/M10 A303 RMK A01 T10911100  RH  093%=      5-min Rain = 0
KAI1 091124Z 32003KT M09/M10 A303 RMK A01 T10911100  RH  093%=      5-min Rain = 0
KAI1 091125Z 32003KT M09/M10 A303 RMK A01 T10911100  RH  093%=      5-min Rain = 0
KAI1 091126Z 32003KT M09/M10 A303 RMK A01 T10911100  RH  093%=      5-min Rain = 0
KAI1 091127Z 33003KT M09/M10 A303 RMK A01 T10921102  RH  093%=      5-min Rain = 0
KAI1 091128Z 33003KT M09/M10 A303 RMK A01 T10921102  RH  093%=      5-min Rain = 0
KAI1 091129Z 32003KT M09/M10 A303 RMK A01 T10931103  RH  092%=      5-min Rain = 0
KAI1 091130Z 33003KT M09/M10 A303 RMK A01 T10931104  RH  092%=      5-min Rain = 0
KAI1 091131Z 33003KT M09/M10 A303 RMK A01 T10941104  RH  092%=      5-min Rain = 0
KAI1 091132Z 33003KT M09/M10 A303 RMK A01 T10941104  RH  092%=      5-min Rain = 0
KAI1 091133Z 33003KT M10/M11 A303 RMK A01 T10951105  RH  092%=      5-min Rain = 0
KAI1 091134Z 33003KT M10/M11 A303 RMK A01 T10951105  RH  092%=      5-min Rain = 0
KAI1 091135Z 33003KT M10/M11 A303 RMK A01 T10951105  RH  092%=      5-min Rain = 0
KAI1 091136Z 33003KT M10/M11 A303 RMK A01 T10951105  RH  092%=      5-min Rain = 0
KAI1 091137Z 33003KT M10/M11 A303 RMK A01 T10951105  RH  092%=      5-min Rain = 0
KAI1 091138Z 33003KT M10/M11 A303 RMK A01 T10951105  RH  093%=      5-min Rain = 0
KAI1 091139Z 33003KT M09/M10 A303 RMK A01 T10941104  RH  093%=      5-min Rain = 0
KAI1 091140Z 33003KT M09/M10 A303 RMK A01 T10941104  RH  093%=      5-min Rain = 0
KAI1 091141Z 33003KT M09/M10 A303 RMK A01 T10941104  RH  093%=      5-min Rain = 0
KAI1 091142Z 33003KT M09/M10 A303 RMK A01 T10941104  RH  093%=      5-min Rain = 0
KAI1 091143Z 33003KT M10/M11 A303 RMK A01 T10951105  RH  093%=      5-min Rain = 0
KAI1 091144Z 33003KT M10/M11 A303 RMK A01 T10951105  RH  092%=      5-min Rain = 0
KAI1 091145Z 33003KT M10/M11 A303 RMK A01 T10961106  RH  092%=      5-min Rain = 0
KAI1 091146Z 33002KT M10/M11 A303 RMK A01 T10971107  RH  092%=      5-min Rain = 0
KAI1 091147Z 33002KT M10/M11 A303 RMK A01 T10971108  RH  092%=      5-min Rain = 0
KAI1 091148Z 33002KT M10/M11 A303 RMK A01 T10981108  RH  092%=      5-min Rain = 0
KAI1 091149Z 33002KT M10/M11 A303 RMK A01 T10981108  RH  092%=      5-min Rain = 0
KAI1 091150Z 33002KT M10/M11 A303 RMK A01 T10971108  RH  092%=      5-min Rain = 0
KAI1 091151Z 33003KT M10/M11 A303 RMK A01 T10971107  RH  092%=      5-min Rain = 0
KAI1 091152Z 34003KT M10/M11 A303 RMK A01 T10971107  RH  093%=      5-min Rain = 0
KAI1 091153Z 34003KT M10/M11 A303 RMK A01 T10951105  RH  093%=      5-min Rain = 0
KAI1 091154Z 34003KT M09/M10 A303 RMK A01 T10941103  RH  093%=      5-min Rain = 0
KAI1 091155Z 34003KT M09/M10 A303 RMK A01 T10931102  RH  093%=      5-min Rain = 0
KAI1 091156Z 34003KT M09/M10 A303 RMK A01 T10921101  RH  094%=      5-min Rain = 0
KAI1 091157Z 34003KT M09/M10 A303 RMK A01 T10931101  RH  093%=      5-min Rain = 0
KAI1 091158Z 34003KT M09/M10 A303 RMK A01 T10921101  RH  093%=      5-min Rain = 0
KAI1 091159Z 34003KT M09/M10 A303 RMK A01 T10931102  RH  093%=      5-min Rain = 0
KAI1 091200Z 34003KT M09/M10 A303 RMK A01 T10931103  RH  093%=      5-min Rain = 0
KAI1 091201Z 34002KT M09/M10 A303 RMK A01 T10941103  RH  093%=      5-min Rain = 0
KAI1 091202Z 34002KT M09/M10 A303 RMK A01 T10941104  RH  093%=      5-min Rain = 0
KAI1 091203Z 34002KT M09/M10 A303 RMK A01 T10941104  RH  093%=      5-min Rain = 0
KAI1 091204Z 34002KT M09/M10 A303 RMK A01 T10941104  RH  093%=      5-min Rain = 0
KAI1 091205Z 34002KT M09/M10 A303 RMK A01 T10931103  RH  093%=      5-min Rain = 0
KAI1 091206Z 34002KT M09/M10 A303 RMK A01 T10931103  RH  093%=      5-min Rain = 0
KAI1 091207Z 34002KT M09/M10 A303 RMK A01 T10941103  RH  093%=      5-min Rain = 0
KAI1 091208Z 34002KT M09/M10 A303 RMK A01 T10941103  RH  093%=      5-min Rain = 0
KAI1 091209Z 34003KT M09/M10 A303 RMK A01 T10931103  RH  093%=      5-min Rain = 0
KAI1 091210Z 34003KT M09/M10 A303 RMK A01 T10931103  RH  093%=      5-min Rain = 0
KAI1 091211Z 34003KT M09/M10 A303 RMK A01 T10931103  RH  093%=      5-min Rain = 0
KAI1 091212Z 34003KT M09/M10 A303 RMK A01 T10931103  RH  093%=      5-min Rain = 0
KAI1 091213Z 34003KT M09/M10 A3031 RMK A01 T10931102  RH  093%=      5-min Rain = 0
KAI1 091214Z 34003KT M09/M10 A3031 RMK A01 T10931102  RH  093%=      5-min Rain = 0
KAI1 091215Z 35003KT M09/M10 A3031 RMK A01 T10931103  RH  093%=      5-min Rain = 0
KAI1 091216Z 35003KT M09/M10 A3031 RMK A01 T10941104  RH  092%=      5-min Rain = 0
KAI1 091217Z 34003KT M10/M11 A3031 RMK A01 T10951105  RH  092%=      5-min Rain = 0
KAI1 091218Z 34003KT M10/M11 A3031 RMK A01 T10961107  RH  092%=      5-min Rain = 0
KAI1 091219Z 34003KT M10/M11 A3031 RMK A01 T10971107  RH  092%=      5-min Rain = 0
KAI1 091220Z 35003KT M10/M11 A3031 RMK A01 T10981108  RH  092%=      5-min Rain = 0
KAI1 091221Z 35003KT M10/M11 A3031 RMK A01 T10981109  RH  092%=      5-min Rain = 0
KAI1 091222Z 35003KT M10/M11 A3031 RMK A01 T10981109  RH  092%=      5-min Rain = 0
KAI1 091223Z 35003KT M10/M11 A3031 RMK A01 T10991110  RH  092%=      5-min Rain = 0
KAI1 091224Z 35003KT M10/M11 A3031 RMK A01 T10991110  RH  092%=      5-min Rain = 0
KAI1 091225Z 35003KT M10/M11 A3031 RMK A01 T10991110  RH  092%=      5-min Rain = 0
KAI1 091226Z 35003KT M10/M11 A3031 RMK A01 T10991110  RH  092%=      5-min Rain = 0
KAI1 091227Z 35003KT M10/M11 A3031 RMK A01 T10991110  RH  092%=      5-min Rain = 0
KAI1 091228Z 36003KT M10/M11 A3031 RMK A01 T10991109  RH  092%=      5-min Rain = 0
KAI1 091229Z 00003KT M10/M11 A3031 RMK A01 T10981109  RH  092%=      5-min Rain = 0
KAI1 091230Z 00003KT M10/M11 A3031 RMK A01 T10991109  RH  092%=      5-min Rain = 0
KAI1 091231Z 00003KT M10/M11 A3031 RMK A01 T10981108  RH  092%=      5-min Rain = 0
KAI1 091232Z 00003KT M10/M11 A3031 RMK A01 T10991109  RH  092%=      5-min Rain = 0
KAI1 091233Z 00003KT M10/M11 A3031 RMK A01 T10991109  RH  092%=      5-min Rain = 0
KAI1 091234Z 00003KT M10/M11 A3031 RMK A01 T10991109  RH  092%=      5-min Rain = 0
KAI1 091235Z 00003KT M10/M11 A3031 RMK A01 T10991109  RH  092%=      5-min Rain = 0
KAI1 091236Z 00003KT M10/M11 A3031 RMK A01 T10991110  RH  092%=      5-min Rain = 0
KAI1 091237Z 00003KT M10/M11 A3031 RMK A01 T11001110  RH  092%=      5-min Rain = 0
KAI1 091238Z 00003KT M10/M11 A3031 RMK A01 T11001111  RH  092%=      5-min Rain = 0
KAI1 091239Z 00003KT M10/M11 A3031 RMK A01 T11011112  RH  092%=      5-min Rain = 0
KAI1 091240Z 00003KT M10/M11 A3032 RMK A01 T11021113  RH  092%=      5-min Rain = 0
KAI1 091241Z 00003KT M10/M11 A3032 RMK A01 T11021113  RH  092%=      5-min Rain = 0
KAI1 091242Z 35003KT M10/M11 A3032 RMK A01 T11031114  RH  092%=      5-min Rain = 0
KAI1 091243Z 35003KT M10/M12 A3032 RMK A01 T11031115  RH  091%=      5-min Rain = 0
KAI1 091244Z 35003KT M10/M11 A3032 RMK A01 T11031114  RH  092%=      5-min Rain = 0
KAI1 091245Z 35003KT M10/M12 A3032 RMK A01 T11041115  RH  092%=      5-min Rain = 0
KAI1 091246Z 35002KT M10/M12 A3032 RMK A01 T11041115  RH  091%=      5-min Rain = 0
KAI1 091247Z 34002KT M11/M12 A3032 RMK A01 T11051117  RH  091%=      5-min Rain = 0
KAI1 091248Z 34002KT M11/M12 A3032 RMK A01 T11061118  RH  091%=      5-min Rain = 0
KAI1 091249Z 34002KT M11/M12 A3032 RMK A01 T11071119  RH  091%=      5-min Rain = 0
KAI1 091250Z 34002KT M11/M12 A3032 RMK A01 T11081121  RH  091%=      5-min Rain = 0
KAI1 091251Z 34002KT M11/M12 A3032 RMK A01 T11091121  RH  091%=      5-min Rain = 0
KAI1 091252Z 34002KT M11/M12 A3032 RMK A01 T11091121  RH  091%=      5-min Rain = 0
KAI1 091253Z 34002KT M11/M12 A3032 RMK A01 T11071119  RH  091%=      5-min Rain = 0
KAI1 091254Z 34002KT M11/M12 A3032 RMK A01 T11051116  RH  092%=      5-min Rain = 0
KAI1 091255Z 34002KT M10/M11 A3032 RMK A01 T11041114  RH  092%=      5-min Rain = 0
KAI1 091256Z 34002KT M10/M11 A3032 RMK A01 T11021112  RH  093%=      5-min Rain = 0
KAI1 091257Z 34002KT M10/M11 A3032 RMK A01 T11011110  RH  093%=      5-min Rain = 0
KAI1 091258Z 34003KT M10/M11 A3032 RMK A01 T10991108  RH  093%=      5-min Rain = 0
KAI1 091259Z 34003KT M10/M11 A3032 RMK A01 T10981107  RH  093%=      5-min Rain = 0
KAI1 091300Z 34003KT M10/M11 A3032 RMK A01 T10971106  RH  093%=      5-min Rain = 0
KAI1 091301Z 34003KT M10/M11 A3032 RMK A01 T10961105  RH  094%=      5-min Rain = 0
KAI1 091302Z 34003KT M10/M10 A3032 RMK A01 T10961104  RH  094%=      5-min Rain = 0
KAI1 091303Z 34003KT M10/M10 A3032 RMK A01 T10951104  RH  093%=      5-min Rain = 0
KAI1 091304Z 34003KT M10/M10 A3032 RMK A01 T10951104  RH  093%=      5-min Rain = 0
KAI1 091305Z 34003KT M10/M10 A3032 RMK A01 T10951104  RH  093%=      5-min Rain = 0
KAI1 091306Z 34003KT M10/M10 A3032 RMK A01 T10951104  RH  093%=      5-min Rain = 0
KAI1 091307Z 34003KT M10/M11 A3032 RMK A01 T10961106  RH  093%=      5-min Rain = 0
KAI1 091308Z 34003KT M10/M11 A3033 RMK A01 T10971108  RH  092%=      5-min Rain = 0
KAI1 091309Z 34003KT M10/M11 A3033 RMK A01 T10991110  RH  092%=      5-min Rain = 0
KAI1 091310Z 34003KT M10/M11 A3033 RMK A01 T11011113  RH  092%=      5-min Rain = 0
KAI1 091311Z 33003KT M10/M12 A3033 RMK A01 T11031115  RH  091%=      5-min Rain = 0
KAI1 091312Z 33003KT M10/M12 A3033 RMK A01 T11041117  RH  091%=      5-min Rain = 0
KAI1 091313Z 33003KT M11/M12 A3033 RMK A01 T11051118  RH  091%=      5-min Rain = 0
KAI1 091314Z 33003KT M11/M12 A3033 RMK A01 T11051117  RH  091%=      5-min Rain = 0
KAI1 091315Z 33002KT M10/M12 A3033 RMK A01 T11041115  RH  091%=      5-min Rain = 0
KAI1 091316Z 32002KT M10/M12 A3033 RMK A01 T11041115  RH  092%=      5-min Rain = 0
KAI1 091317Z 32002KT M10/M11 A3033 RMK A01 T11031114  RH  092%=      5-min Rain = 0
KAI1 091318Z 32002KT M10/M12 A3033 RMK A01 T11041115  RH  092%=      5-min Rain = 0
KAI1 091319Z 32002KT M10/M11 A3033 RMK A01 T11031114  RH  092%=      5-min Rain = 0
KAI1 091320Z 32002KT M10/M12 A3033 RMK A01 T11041115  RH  092%=      5-min Rain = 0
KAI1 091321Z 32002KT M11/M12 A3034 RMK A01 T11051116  RH  092%=      5-min Rain = 0
KAI1 091322Z 33002KT M11/M12 A3034 RMK A01 T11051117  RH  091%=      5-min Rain = 0
KAI1 091323Z 33002KT M11/M12 A3034 RMK A01 T11061118  RH  091%=      5-min Rain = 0
KAI1 091324Z 33002KT M11/M12 A3034 RMK A01 T11071119  RH  091%=      5-min Rain = 0
KAI1 091325Z 33002KT M11/M12 A3034 RMK A01 T11071119  RH  091%=      5-min Rain = 0
KAI1 091326Z 33002KT M11/M12 A3034 RMK A01 T11071119  RH  091%=      5-min Rain = 0
KAI1 091327Z 33002KT M11/M12 A3034 RMK A01 T11081119  RH  091%=      5-min Rain = 0
KAI1 091328Z 34002KT M11/M12 A3034 RMK A01 T11071119  RH  091%=      5-min Rain = 0
KAI1 091329Z 34002KT M11/M12 A3034 RMK A01 T11071118  RH  092%=      5-min Rain = 0
KAI1 091330Z 34002KT M11/M12 A3034 RMK A01 T11071118  RH  092%=      5-min Rain = 0
KAI1 091331Z 34002KT M11/M12 A3034 RMK A01 T11061117  RH  092%=      5-min Rain = 0
KAI1 091332Z 34002KT M11/M12 A3034 RMK A01 T11061117  RH  092%=      5-min Rain = 0
KAI1 091333Z 34002KT M11/M12 A3034 RMK A01 T11061116  RH  092%=      5-min Rain = 0
KAI1 091334Z 34002KT M11/M12 A3034 RMK A01 T11051115  RH  092%=      5-min Rain = 0
KAI1 091335Z 34002KT M11/M12 A3034 RMK A01 T11051115  RH  092%=      5-min Rain = 0
KAI1 091336Z 34002KT M10/M11 A3034 RMK A01 T11041114  RH  092%=      5-min Rain = 0
KAI1 091337Z 34002KT M10/M11 A3034 RMK A01 T11041114  RH  092%=      5-min Rain = 0
KAI1 091338Z 34002KT M10/M11 A3034 RMK A01 T11031113  RH  092%=      5-min Rain = 0
KAI1 091339Z 34002KT M10/M11 A3034 RMK A01 T11031113  RH  092%=      5-min Rain = 0
KAI1 091340Z 34002KT M10/M11 A3034 RMK A01 T11031113  RH  092%=      5-min Rain = 0
KAI1 091341Z 34002KT M10/M11 A3034 RMK A01 T11021112  RH  092%=      5-min Rain = 0
KAI1 091342Z 34002KT M10/M11 A3034 RMK A01 T11031113  RH  092%=      5-min Rain = 0
KAI1 091343Z 34002KT M10/M11 A3035 RMK A01 T11021113  RH  092%=      5-min Rain = 0
KAI1 091344Z 34002KT M10/M11 A3035 RMK A01 T11031113  RH  092%=      5-min Rain = 0
KAI1 091345Z 34002KT M10/M11 A3035 RMK A01 T11021113  RH  092%=      5-min Rain = 0
KAI1 091346Z 34002KT M10/M11 A3035 RMK A01 T11021112  RH  092%=      5-min Rain = 0
KAI1 091347Z 34003KT M10/M11 A3035 RMK A01 T11021113  RH  092%=      5-min Rain = 0
KAI1 091348Z 34003KT M10/M11 A3035 RMK A01 T11021113  RH  092%=      5-min Rain = 0
KAI1 091349Z 34003KT M10/M11 A3035 RMK A01 T11031113  RH  092%=      5-min Rain = 0
KAI1 091350Z 35003KT M10/M11 A3035 RMK A01 T11031114  RH  092%=      5-min Rain = 0
KAI1 091351Z 35003KT M10/M11 A3035 RMK A01 T11031114  RH  092%=      5-min Rain = 0
KAI1 091352Z 35003KT M10/M11 A3035 RMK A01 T11031114  RH  092%=      5-min Rain = 0
KAI1 091353Z 35003KT M10/M11 A3035 RMK A01 T11031114  RH  092%=      5-min Rain = 0
KAI1 091354Z 35003KT M10/M12 A3035 RMK A01 T11031115  RH  091%=      5-min Rain = 0
KAI1 091355Z 35003KT M10/M12 A3035 RMK A01 T11031115  RH  091%=      5-min Rain = 0
KAI1 091356Z 35003KT M10/M12 A3035 RMK A01 T11041115  RH  091%=      5-min Rain = 0
KAI1 091357Z 35003KT M10/M12 A3035 RMK A01 T11031115  RH  091%=      5-min Rain = 0
KAI1 091358Z 35003KT M10/M11 A3035 RMK A01 T11031114  RH  091%=      5-min Rain = 0
KAI1 091359Z 35003KT M10/M11 A3035 RMK A01 T11021113  RH  092%=      5-min Rain = 0
KAI1 091400Z 35003KT M10/M11 A3035 RMK A01 T11001111  RH  092%=      5-min Rain = 0
KAI1 091401Z 35003KT M10/M11 A3035 RMK A01 T11001110  RH  092%=      5-min Rain = 0
KAI1 091402Z 35003KT M10/M11 A3035 RMK A01 T10981109  RH  092%=      5-min Rain = 0
KAI1 091403Z 35003KT M10/M11 A3035 RMK A01 T10981108  RH  092%=      5-min Rain = 0
KAI1 091404Z 00003KT M10/M11 A3035 RMK A01 T10981108  RH  092%=      5-min Rain = 0
KAI1 091405Z 00003KT M10/M11 A3035 RMK A01 T10971107  RH  092%=      5-min Rain = 0
KAI1 091406Z 35003KT M10/M11 A3035 RMK A01 T10961106  RH  092%=      5-min Rain = 0
KAI1 091407Z 35003KT M10/M11 A3035 RMK A01 T10961106  RH  092%=      5-min Rain = 0
KAI1 091408Z 35003KT M10/M11 A3035 RMK A01 T10951105  RH  092%=      5-min Rain = 0
KAI1 091409Z 35003KT M10/M11 A3035 RMK A01 T10951105  RH  092%=      5-min Rain = 0
KAI1 091410Z 35003KT M09/M11 A3035 RMK A01 T10941105  RH  092%=      5-min Rain = 0
KAI1 091411Z 35003KT M09/M11 A3035 RMK A01 T10941105  RH  092%=      5-min Rain = 0
KAI1 091412Z 35003KT M09/M11 A3035 RMK A01 T10941105  RH  092%=      5-min Rain = 0
KAI1 091413Z 35003KT M10/M11 A3035 RMK A01 T10951106  RH  092%=      5-min Rain = 0
KAI1 091414Z 35003KT M10/M11 A3035 RMK A01 T10961107  RH  091%=      5-min Rain = 0
KAI1 091415Z 35003KT M10/M11 A3035 RMK A01 T10971109  RH  091%=      5-min Rain = 0
KAI1 091416Z 35003KT M10/M11 A3035 RMK A01 T10981111  RH  091%=      5-min Rain = 0
KAI1 091417Z 35002KT M10/M11 A3035 RMK A01 T11001113  RH  090%=      5-min Rain = 0
KAI1 091418Z 35002KT M10/M11 A3035 RMK A01 T11001113  RH  090%=      5-min Rain = 0
KAI1 091419Z 35002KT M10/M11 A3035 RMK A01 T11011114  RH  090%=      5-min Rain = 0
KAI1 091420Z 35002KT M10/M11 A3035 RMK A01 T11011114  RH  090%=      5-min Rain = 0
KAI1 091421Z 35002KT M10/M11 A3035 RMK A01 T11001113  RH  090%=      5-min Rain = 0
KAI1 091422Z 35002KT M10/M11 A3035 RMK A01 T11001112  RH  090%=      5-min Rain = 0
KAI1 091423Z 35002KT M10/M11 A3035 RMK A01 T10991111  RH  091%=      5-min Rain = 0
KAI1 091424Z 35002KT M10/M11 A3035 RMK A01 T10981111  RH  091%=      5-min Rain = 0
KAI1 091425Z 35002KT M10/M11 A3035 RMK A01 T10971109  RH  091%=      5-min Rain = 0
KAI1 091426Z 35002KT M10/M11 A3036 RMK A01 T10961108  RH  091%=      5-min Rain = 0
KAI1 091427Z 35002KT M10/M11 A3035 RMK A01 T10961108  RH  091%=      5-min Rain = 0
KAI1 091428Z 35002KT M10/M11 A3035 RMK A01 T10951107  RH  091%=      5-min Rain = 0
KAI1 091429Z 35002KT M09/M11 A3035 RMK A01 T10941106  RH  091%=      5-min Rain = 0
KAI1 091430Z 35002KT M09/M11 A3035 RMK A01 T10941106  RH  091%=      5-min Rain = 0
KAI1 091431Z 35002KT M09/M11 A3036 RMK A01 T10931105  RH  091%=      5-min Rain = 0
KAI1 091432Z 34003KT M09/M11 A3036 RMK A01 T10931105  RH  091%=      5-min Rain = 0
KAI1 091433Z 34003KT M09/M11 A3036 RMK A01 T10921105  RH  091%=      5-min Rain = 0
KAI1 091434Z 34003KT M09/M11 A3036 RMK A01 T10921105  RH  091%=      5-min Rain = 0
KAI1 091435Z 34003KT M09/M11 A3036 RMK A01 T10921105  RH  091%=      5-min Rain = 0
KAI1 091436Z 34003KT M09/M10 A3036 RMK A01 T10911104  RH  091%=      5-min Rain = 0
KAI1 091437Z 34003KT M09/M10 A3036 RMK A01 T10911103  RH  091%=      5-min Rain = 0
KAI1 091438Z 34003KT M09/M10 A3036 RMK A01 T10901103  RH  091%=      5-min Rain = 0
KAI1 091439Z 34003KT M09/M10 A3036 RMK A01 T10901103  RH  091%=      5-min Rain = 0
KAI1 091440Z 34003KT M09/M10 A3036 RMK A01 T10911103  RH  091%=      5-min Rain = 0
KAI1 091441Z 34003KT M09/M10 A3036 RMK A01 T10911103  RH  090%=      5-min Rain = 0
KAI1 091442Z 34003KT M09/M10 A3037 RMK A01 T10901103  RH  091%=      5-min Rain = 0
KAI1 091443Z 34003KT M09/M10 A3037 RMK A01 T10891102  RH  091%=      5-min Rain = 0
KAI1 091444Z 34003KT M09/M10 A3037 RMK A01 T10881100  RH  091%=      5-min Rain = 0
KAI1 091445Z 34003KT M09/M10 A3037 RMK A01 T10871099  RH  091%=      5-min Rain = 0
KAI1 091446Z 34003KT M09/M10 A3037 RMK A01 T10871098  RH  091%=      5-min Rain = 0
KAI1 091447Z 34003KT M09/M10 A3037 RMK A01 T10861097  RH  091%=      5-min Rain = 0
KAI1 091448Z 34003KT M08/M10 A3037 RMK A01 T10841096  RH  092%=      5-min Rain = 0
KAI1 091449Z 34003KT M08/M10 A3037 RMK A01 T10841095  RH  092%=      5-min Rain = 0
KAI1 091450Z 34003KT M08/M09 A3037 RMK A01 T10821093  RH  092%=      5-min Rain = 0
KAI1 091451Z 34003KT M08/M09 A3037 RMK A01 T10821093  RH  092%=      5-min Rain = 0
KAI1 091452Z 34003KT M08/M09 A3037 RMK A01 T10811093  RH  092%=      5-min Rain = 0
KAI1 091453Z 34003KT M08/M09 A3037 RMK A01 T10811093  RH  092%=      5-min Rain = 0
KAI1 091454Z 34003KT M08/M09 A3037 RMK A01 T10811093  RH  091%=      5-min Rain = 0
KAI1 091455Z 34003KT M08/M09 A3037 RMK A01 T10801092  RH  092%=      5-min Rain = 0
KAI1 091456Z 34003KT M08/M09 A3037 RMK A01 T10791091  RH  092%=      5-min Rain = 0
KAI1 091457Z 34003KT M08/M09 A3037 RMK A01 T10791090  RH  092%=      5-min Rain = 0
KAI1 091458Z 34002KT M08/M09 A3037 RMK A01 T10781089  RH  092%=      5-min Rain = 0
KAI1 091459Z 34002KT M08/M09 A3037 RMK A01 T10771088  RH  092%=      5-min Rain = 0
KAI1 091500Z 35002KT M08/M09 A3037 RMK A01 T10761087  RH  092%=      5-min Rain = 0
KAI1 091501Z 34002KT M08/M09 A3037 RMK A01 T10751086  RH  092%=      5-min Rain = 0
KAI1 091502Z 34002KT M07/M08 A3037 RMK A01 T10741084  RH  092%=      5-min Rain = 0
KAI1 091503Z 34002KT M07/M08 A3037 RMK A01 T10731084  RH  092%=      5-min Rain = 0
KAI1 091504Z 34002KT M07/M08 A3037 RMK A01 T10721083  RH  092%=      5-min Rain = 0
KAI1 091505Z 34002KT M07/M08 A3037 RMK A01 T10721082  RH  092%=      5-min Rain = 0
KAI1 091506Z 34002KT M07/M08 A3037 RMK A01 T10711081  RH  092%=      5-min Rain = 0
KAI1 091507Z 34003KT M07/M08 A3037 RMK A01 T10701080  RH  093%=      5-min Rain = 0
KAI1 091508Z 34003KT M07/M08 A3038 RMK A01 T10701080  RH  093%=      5-min Rain = 0
KAI1 091509Z 34003KT M07/M08 A3038 RMK A01 T10691080  RH  092%=      5-min Rain = 0
KAI1 091510Z 34003KT M07/M08 A3038 RMK A01 T10691079  RH  092%=      5-min Rain = 0
KAI1 091511Z 34003KT M07/M08 A3038 RMK A01 T10691079  RH  092%=      5-min Rain = 0
KAI1 091512Z 33003KT M07/M08 A3038 RMK A01 T10681078  RH  092%=      5-min Rain = 0
KAI1 091513Z 33004KT M07/M08 A3038 RMK A01 T10681079  RH  092%=      5-min Rain = 0
KAI1 091514Z 33004KT M07/M08 A3038 RMK A01 T10691081  RH  092%=      5-min Rain = 0
KAI1 091515Z 33004KT M07/M08 A3038 RMK A01 T10701081  RH  092%=      5-min Rain = 0
KAI1 091516Z 34004KT M07/M08 A3038 RMK A01 T10701081  RH  092%=      5-min Rain = 0
KAI1 091517Z 33004KT M07/M08 A3038 RMK A01 T10691080  RH  092%=      5-min Rain = 0
KAI1 091518Z 33004KT M07/M08 A3038 RMK A01 T10681079  RH  092%=      5-min Rain = 0
KAI1 091519Z 33004KT M07/M08 A3038 RMK A01 T10671077  RH  093%=      5-min Rain = 0
KAI1 091520Z 33004KT M07/M07 A3038 RMK A01 T10651074  RH  093%=      5-min Rain = 0
KAI1 091521Z 33004KT M06/M07 A3038 RMK A01 T10631072  RH  093%=      5-min Rain = 0
KAI1 091522Z 34004KT M06/M07 A3038 RMK A01 T10611070  RH  094%=      5-min Rain = 0
KAI1 091523Z 34004KT M06/M07 A3038 RMK A01 T10601068  RH  094%=      5-min Rain = 0
KAI1 091524Z 34004KT M06/M07 A3038 RMK A01 T10591068  RH  094%=      5-min Rain = 0
KAI1 091525Z 33004KT M06/M07 A3038 RMK A01 T10581067  RH  094%=      5-min Rain = 0
KAI1 091526Z 34004KT M06/M07 A3038 RMK A01 T10571066  RH  094%=      5-min Rain = 0
KAI1 091527Z 34004KT M06/M07 A3038 RMK A01 T10561065  RH  094%=      5-min Rain = 0
KAI1 091528Z 34004KT M06/M06 A3038 RMK A01 T10561064  RH  094%=      5-min Rain = 0
KAI1 091529Z 34004KT M06/M06 A3038 RMK A01 T10551064  RH  094%=      5-min Rain = 0
KAI1 091530Z 34003KT M05/M06 A3038 RMK A01 T10541062  RH  094%=      5-min Rain = 0
KAI1 091531Z 34003KT M05/M06 A3038 RMK A01 T10531062  RH  094%=      5-min Rain = 0
KAI1 091532Z 34003KT M05/M06 A3038 RMK A01 T10521060  RH  094%=      5-min Rain = 0
KAI1 091533Z 34003KT M05/M06 A3038 RMK A01 T10511059  RH  094%=      5-min Rain = 0
KAI1 091534Z 34003KT M05/M06 A3038 RMK A01 T10501058  RH  094%=      5-min Rain = 0
KAI1 091535Z 34003KT M05/M06 A3038 RMK A01 T10491057  RH  094%=      5-min Rain = 0
KAI1 091536Z 35003KT M05/M06 A3038 RMK A01 T10481057  RH  094%=      5-min Rain = 0
KAI1 091537Z 35003KT M05/M06 A3038 RMK A01 T10481056  RH  094%=      5-min Rain = 0
KAI1 091538Z 35003KT M05/M06 A3038 RMK A01 T10471056  RH  094%=      5-min Rain = 0
KAI1 091539Z 35003KT M05/M06 A3038 RMK A01 T10461055  RH  094%=      5-min Rain = 0
KAI1 091540Z 35003KT M05/M05 A3038 RMK A01 T10461054  RH  094%=      5-min Rain = 0
KAI1 091541Z 35003KT M05/M05 A3038 RMK A01 T10451054  RH  094%=      5-min Rain = 0
KAI1 091542Z 34003KT M05/M05 A3038 RMK A01 T10451054  RH  094%=      5-min Rain = 0
KAI1 091543Z 35003KT M05/M05 A3038 RMK A01 T10451053  RH  094%=      5-min Rain = 0
KAI1 091544Z 35003KT M04/M05 A3038 RMK A01 T10441053  RH  094%=      5-min Rain = 0
KAI1 091545Z 35004KT M04/M05 A3038 RMK A01 T10441053  RH  094%=      5-min Rain = 0
KAI1 091546Z 35004KT M04/M05 A3038 RMK A01 T10441053  RH  094%=      5-min Rain = 0
KAI1 091547Z 35004KT M05/M05 A3038 RMK A01 T10451053  RH  094%=      5-min Rain = 0
KAI1 091548Z 35004KT M05/M05 A3038 RMK A01 T10451053  RH  094%=      5-min Rain = 0
KAI1 091549Z 35004KT M05/M05 A3038 RMK A01 T10461054  RH  094%=      5-min Rain = 0
KAI1 091550Z 35004KT M05/M06 A3038 RMK A01 T10461055  RH  094%=      5-min Rain = 0
KAI1 091551Z 35004KT M05/M06 A3038 RMK A01 T10461055  RH  093%=      5-min Rain = 0
KAI1 091552Z 35004KT M05/M06 A3038 RMK A01 T10451055  RH  093%=      5-min Rain = 0
KAI1 091553Z 36004KT M05/M06 A3038 RMK A01 T10461055  RH  093%=      5-min Rain = 0
KAI1 091554Z 00003KT M05/M05 A3038 RMK A01 T10451054  RH  093%=      5-min Rain = 0
KAI1 091555Z 36003KT M04/M05 A3038 RMK A01 T10441053  RH  093%=      5-min Rain = 0
KAI1 091556Z 36003KT M04/M05 A3038 RMK A01 T10441053  RH  094%=      5-min Rain = 0
KAI1 091557Z 35003KT M04/M05 A3038 RMK A01 T10431052  RH  094%=      5-min Rain = 0
KAI1 091558Z 35003KT M04/M05 A3038 RMK A01 T10421051  RH  094%=      5-min Rain = 0
KAI1 091559Z 34003KT M04/M05 A3038 RMK A01 T10421051  RH  094%=      5-min Rain = 0
KAI1 091600Z 34003KT M04/M05 A3038 RMK A01 T10421050  RH  094%=      5-min Rain = 0
KAI1 091601Z 35004KT M04/M05 A3038 RMK A01 T10421050  RH  094%=      5-min Rain = 0
KAI1 091602Z 35004KT M04/M05 A3038 RMK A01 T10411050  RH  094%=      5-min Rain = 0
KAI1 091603Z 34004KT M04/M05 A3038 RMK A01 T10411050  RH  094%=      5-min Rain = 0
KAI1 091604Z 35004KT M04/M05 A3038 RMK A01 T10411049  RH  094%=      5-min Rain = 0
KAI1 091605Z 35004KT M04/M05 A3038 RMK A01 T10401049  RH  094%=      5-min Rain = 0
KAI1 091606Z 35004KT M04/M05 A3038 RMK A01 T10401048  RH  094%=      5-min Rain = 0
KAI1 091607Z 35003KT M04/M05 A3038 RMK A01 T10391048  RH  094%=      5-min Rain = 0
KAI1 091608Z 36003KT M04/M05 A3038 RMK A01 T10391047  RH  094%=      5-min Rain = 0
KAI1 091609Z 35003KT M04/M05 A3038 RMK A01 T10381047  RH  094%=      5-min Rain = 0
KAI1 091610Z 35003KT M04/M05 A3038 RMK A01 T10381047  RH  094%=      5-min Rain = 0
KAI1 091611Z 35003KT M04/M05 A3038 RMK A01 T10381046  RH  094%=      5-min Rain = 0
KAI1 091612Z 34003KT M04/M05 A3038 RMK A01 T10371046  RH  094%=      5-min Rain = 0
KAI1 091613Z 35003KT M04/M05 A3038 RMK A01 T10371045  RH  094%=      5-min Rain = 0
KAI1 091614Z 34002KT M04/M05 A3038 RMK A01 T10371045  RH  094%=      5-min Rain = 0
KAI1 091615Z 34003KT M04/M05 A3038 RMK A01 T10361045  RH  094%=      5-min Rain = 0
KAI1 091616Z 34003KT M04/M05 A3039 RMK A01 T10371045  RH  094%=      5-min Rain = 0
KAI1 091617Z 34003KT M04/M05 A3039 RMK A01 T10371045  RH  094%=      5-min Rain = 0
KAI1 091618Z 34003KT M04/M05 A3039 RMK A01 T10371045  RH  094%=      5-min Rain = 0
KAI1 091619Z 34003KT M04/M05 A3039 RMK A01 T10361045  RH  094%=      5-min Rain = 0
KAI1 091620Z 34004KT M04/M05 A3039 RMK A01 T10361045  RH  094%=      5-min Rain = 0
KAI1 091621Z 34004KT M04/M05 A3039 RMK A01 T10361045  RH  094%=      5-min Rain = 0
KAI1 091622Z 34004KT M04/M04 A3039 RMK A01 T10361044  RH  094%=      5-min Rain = 0
KAI1 091623Z 34004KT M04/M04 A3039 RMK A01 T10351044  RH  094%=      5-min Rain = 0
KAI1 091624Z 34004KT M04/M04 A3039 RMK A01 T10351043  RH  094%=      5-min Rain = 0
KAI1 091625Z 34003KT M03/M04 A3039 RMK A01 T10341042  RH  094%=      5-min Rain = 0
KAI1 091626Z 34003KT M03/M04 A3039 RMK A01 T10331041  RH  094%=      5-min Rain = 0
KAI1 091627Z 34003KT M03/M04 A3039 RMK A01 T10321040  RH  094%=      5-min Rain = 0
KAI1 091628Z 34004KT M03/M04 A3039 RMK A01 T10311039  RH  094%=      5-min Rain = 0
KAI1 091629Z 34004KT M03/M04 A3039 RMK A01 T10311039  RH  094%=      5-min Rain = 0
KAI1 091630Z 34004KT M03/M04 A3039 RMK A01 T10301038  RH  094%=      5-min Rain = 0
KAI1 091631Z 34004KT M03/M04 A3039 RMK A01 T10301038  RH  094%=      5-min Rain = 0
KAI1 091632Z 34004KT M03/M04 A3039 RMK A01 T10291038  RH  094%=      5-min Rain = 0
KAI1 091633Z 33004KT M03/M04 A3039 RMK A01 T10291037  RH  094%=      5-min Rain = 0
KAI1 091634Z 33004KT M03/M04 A3039 RMK A01 T10291037  RH  094%=      5-min Rain = 0
KAI1 091635Z 34004KT M03/M04 A3039 RMK A01 T10281036  RH  094%=      5-min Rain = 0
KAI1 091636Z 34004KT M03/M04 A3039 RMK A01 T10281036  RH  094%=      5-min Rain = 0
KAI1 091637Z 34004KT M03/M04 A3039 RMK A01 T10271035  RH  094%=      5-min Rain = 0
KAI1 091638Z 34004KT M03/M04 A3039 RMK A01 T10271035  RH  094%=      5-min Rain = 0
KAI1 091639Z 34004KT M03/M03 A3039 RMK A01 T10261034  RH  094%=      5-min Rain = 0
KAI1 091640Z 34004KT M03/M03 A3039 RMK A01 T10261034  RH  094%=      5-min Rain = 0
KAI1 091641Z 34004KT M03/M03 A3039 RMK A01 T10251033  RH  094%=      5-min Rain = 0
KAI1 091642Z 34004KT M03/M03 A3039 RMK A01 T10251033  RH  094%=      5-min Rain = 0
KAI1 091643Z 34004KT M02/M03 A3039 RMK A01 T10241032  RH  094%=      5-min Rain = 0
KAI1 091644Z 34004KT M02/M03 A3039 RMK A01 T10241032  RH  094%=      5-min Rain = 0
KAI1 091645Z 35004KT M02/M03 A3039 RMK A01 T10231031  RH  094%=      5-min Rain = 0
KAI1 091646Z 34004KT M02/M03 A3039 RMK A01 T10231031  RH  094%=      5-min Rain = 0
KAI1 091647Z 34004KT M02/M03 A3039 RMK A01 T10231031  RH  094%=      5-min Rain = 0
KAI1 091648Z 34004KT M02/M03 A3039 RMK A01 T10221030  RH  094%=      5-min Rain = 0
KAI1 091649Z 34004KT M02/M03 A3039 RMK A01 T10221030  RH  094%=      5-min Rain = 0
KAI1 091650Z 34004KT M02/M03 A3039 RMK A01 T10221030  RH  094%=      5-min Rain = 0
KAI1 091651Z 34004KT M02/M03 A3039 RMK A01 T10221030  RH  094%=      5-min Rain = 0
KAI1 091652Z 34004KT M02/M03 A3039 RMK A01 T10221030  RH  094%=      5-min Rain = 0
KAI1 091653Z 35003KT M02/M03 A3039 RMK A01 T10211029  RH  094%=      5-min Rain = 0
KAI1 091654Z 35003KT M02/M03 A3039 RMK A01 T10211029  RH  094%=      5-min Rain = 0
KAI1 091655Z 35004KT M02/M03 A3039 RMK A01 T10201028  RH  094%=      5-min Rain = 0
KAI1 091656Z 35003KT M02/M03 A3039 RMK A01 T10191027  RH  094%=      5-min Rain = 0
KAI1 091657Z 35003KT M02/M03 A3039 RMK A01 T10191027  RH  094%=      5-min Rain = 0.01
KAI1 091658Z 35003KT M02/M03 A3039 RMK A01 T10191027  RH  094%=      5-min Rain = 0
KAI1 091659Z 35003KT M02/M03 A3039 RMK A01 T10181026  RH  094%=      5-min Rain = 0
KAI1 091700Z 34003KT M02/M03 A3039 RMK A01 T10181026  RH  094%=      5-min Rain = 0
KAI1 091701Z 34003KT M02/M03 A3039 RMK A01 T10171025  RH  094%=      5-min Rain = 0
KAI1 091702Z 34003KT M02/M03 A3039 RMK A01 T10171025  RH  094%=      5-min Rain = 0
KAI1 091703Z 34003KT M02/M02 A3038 RMK A01 T10161024  RH  094%=      5-min Rain = 0
KAI1 091704Z 34003KT M02/M02 A3039 RMK A01 T10161024  RH  094%=      5-min Rain = 0
KAI1 091705Z 35003KT M02/M02 A3039 RMK A01 T10161023  RH  094%=      5-min Rain = 0
KAI1 091706Z 34003KT M02/M02 A3039 RMK A01 T10151023  RH  094%=      5-min Rain = 0
KAI1 091707Z 35003KT M01/M02 A3039 RMK A01 T10141022  RH  094%=      5-min Rain = 0
KAI1 091708Z 35003KT M01/M02 A3038 RMK A01 T10141022  RH  094%=      5-min Rain = 0
KAI1 091709Z 35002KT M01/M02 A3038 RMK A01 T10141022  RH  094%=      5-min Rain = 0
KAI1 091710Z 34002KT M01/M02 A3038 RMK A01 T10131021  RH  094%=      5-min Rain = 0
KAI1 091711Z 34003KT M01/M02 A3038 RMK A01 T10131021  RH  094%=      5-min Rain = 0
KAI1 091712Z 35003KT M01/M02 A3038 RMK A01 T10131020  RH  094%=      5-min Rain = 0
KAI1 091713Z 35003KT M01/M02 A3038 RMK A01 T10121020  RH  094%=      5-min Rain = 0
KAI1 091714Z 35002KT M01/M02 A3038 RMK A01 T10121020  RH  094%=      5-min Rain = 0
KAI1 091715Z 35002KT M01/M02 A3038 RMK A01 T10121020  RH  094%=      5-min Rain = 0
KAI1 091716Z 34002KT M01/M02 A3039 RMK A01 T10111019  RH  095%=      5-min Rain = 0
KAI1 091717Z 34003KT M01/M02 A3039 RMK A01 T10111019  RH  095%=      5-min Rain = 0
KAI1 091718Z 34002KT M01/M02 A3039 RMK A01 T10111018  RH  095%=      5-min Rain = 0
KAI1 091719Z 34003KT M01/M02 A3039 RMK A01 T10101018  RH  095%=      5-min Rain = 0
KAI1 091720Z 33002KT M01/M02 A3039 RMK A01 T10101018  RH  095%=      5-min Rain = 0
KAI1 091721Z 33002KT M01/M02 A3039 RMK A01 T10101018  RH  095%=      5-min Rain = 0
KAI1 091722Z 33002KT M01/M02 A3039 RMK A01 T10101018  RH  094%=      5-min Rain = 0
KAI1 091723Z 33002KT M01/M02 A3039 RMK A01 T10101018  RH  094%=      5-min Rain = 0
KAI1 091724Z 33002KT M01/M02 A3039 RMK A01 T10111019  RH  094%=      5-min Rain = 0
KAI1 091725Z 33002KT M01/M02 A3039 RMK A01 T10101018  RH  094%=      5-min Rain = 0
KAI1 091726Z 33002KT M01/M02 A3039 RMK A01 T10101017  RH  094%=      5-min Rain = 0
KAI1 091727Z 33002KT M01/M02 A3039 RMK A01 T10091017  RH  094%=      5-min Rain = 0
KAI1 091728Z 33002KT M01/M02 A3039 RMK A01 T10091017  RH  094%=      5-min Rain = 0
KAI1 091729Z 33002KT M01/M02 A3039 RMK A01 T10091016  RH  094%=      5-min Rain = 0
KAI1 091730Z 33001KT M01/M02 A3039 RMK A01 T10081016  RH  095%=      5-min Rain = 0
KAI1 091731Z 33001KT M01/M02 A3039 RMK A01 T10071015  RH  095%=      5-min Rain = 0
KAI1 091732Z 33001KT M01/M01 A3039 RMK A01 T10071014  RH  095%=      5-min Rain = 0
KAI1 091733Z 33001KT M01/M01 A3039 RMK A01 T10061014  RH  095%=      5-min Rain = 0
KAI1 091734Z 32001KT M01/M01 A3039 RMK A01 T10071014  RH  094%=      5-min Rain = 0
KAI1 091735Z 32001KT M01/M02 A3039 RMK A01 T10061015  RH  094%=      5-min Rain = 0
KAI1 091736Z 32001KT M01/M01 A3039 RMK A01 T10061014  RH  094%=      5-min Rain = 0
KAI1 091737Z 33001KT M01/M01 A3039 RMK A01 T10051013  RH  094%=      5-min Rain = 0
KAI1 091738Z 34001KT M00/M01 A3039 RMK A01 T10041012  RH  095%=      5-min Rain = 0
KAI1 091739Z 34001KT M00/M01 A3039 RMK A01 T10041012  RH  095%=      5-min Rain = 0
KAI1 091740Z 34002KT M00/M01 A3039 RMK A01 T10041011  RH  095%=      5-min Rain = 0
KAI1 091741Z 34002KT M00/M01 A3039 RMK A01 T10031011  RH  094%=      5-min Rain = 0
KAI1 091742Z 34002KT M00/M01 A3038 RMK A01 T10031011  RH  094%=      5-min Rain = 0
KAI1 091743Z 34002KT M00/M01 A3038 RMK A01 T10031011  RH  094%=      5-min Rain = 0
KAI1 091744Z 35002KT M00/M01 A3038 RMK A01 T10031012  RH  094%=      5-min Rain = 0
KAI1 091745Z 35002KT M00/M01 A3038 RMK A01 T10031012  RH  094%=      5-min Rain = 0
KAI1 091746Z 00002KT M00/M01 A3038 RMK A01 T10031012  RH  094%=      5-min Rain = 0
KAI1 091747Z 00002KT M00/M01 A3038 RMK A01 T10031012  RH  094%=      5-min Rain = 0
KAI1 091748Z 00002KT M00/M01 A3038 RMK A01 T10031012  RH  094%=      5-min Rain = 0
KAI1 091749Z 00002KT M00/M01 A3038 RMK A01 T10041013  RH  094%=      5-min Rain = 0
KAI1 091750Z 00002KT M00/M01 A3038 RMK A01 T10041013  RH  094%=      5-min Rain = 0
KAI1 091751Z 00002KT M00/M01 A3038 RMK A01 T10041013  RH  093%=      5-min Rain = 0
KAI1 091752Z 01002KT M00/M01 A3038 RMK A01 T10041013  RH  094%=      5-min Rain = 0
KAI1 091753Z 01002KT M00/M01 A3038 RMK A01 T10041013  RH  093%=      5-min Rain = 0
KAI1 091754Z 01002KT M00/M01 A3038 RMK A01 T10041014  RH  093%=      5-min Rain = 0
KAI1 091755Z 01002KT M00/M01 A3038 RMK A01 T10041014  RH  093%=      5-min Rain = 0
KAI1 091756Z 36001KT M00/M01 A3038 RMK A01 T10041014  RH  093%=      5-min Rain = 0
KAI1 091757Z 36001KT M00/M01 A3038 RMK A01 T10041013  RH  093%=      5-min Rain = 0
KAI1 091758Z 00001KT M00/M01 A3038 RMK A01 T10041013  RH  093%=      5-min Rain = 0
KAI1 091759Z 35001KT M00/M01 A3038 RMK A01 T10031012  RH  093%=      5-min Rain = 0
KAI1 091800Z 35002KT M00/M01 A3038 RMK A01 T10021012  RH  094%=      5-min Rain = 0
KAI1 091801Z 36001KT M00/M01 A3038 RMK A01 T10021011  RH  094%=      5-min Rain = 0
KAI1 091802Z 00002KT M00/M01 A3038 RMK A01 T10021011  RH  093%=      5-min Rain = 0
KAI1 091803Z 00002KT M00/M01 A3038 RMK A01 T10021011  RH  093%=      5-min Rain = 0
KAI1 091804Z 00001KT M00/M01 A3038 RMK A01 T10021011  RH  094%=      5-min Rain = 0
KAI1 091805Z 35001KT M00/M01 A3038 RMK A01 T10021011  RH  094%=      5-min Rain = 0
KAI1 091806Z 35001KT M00/M01 A3038 RMK A01 T10011011  RH  093%=      5-min Rain = 0
KAI1 091807Z 35001KT M00/M01 A3038 RMK A01 T10011011  RH  093%=      5-min Rain = 0
KAI1 091808Z 35002KT M00/M01 A3038 RMK A01 T10011011  RH  093%=      5-min Rain = 0
KAI1 091809Z 35001KT M00/M01 A3038 RMK A01 T10011010  RH  093%=      5-min Rain = 0
KAI1 091810Z 34001KT M00/M01 A3038 RMK A01 T10011010  RH  093%=      5-min Rain = 0
KAI1 091811Z 34001KT M00/M01 A3038 RMK A01 T10011011  RH  093%=      5-min Rain = 0
KAI1 091812Z 34002KT M00/M01 A3038 RMK A01 T10011011  RH  093%=      5-min Rain = 0
KAI1 091813Z 34002KT M00/M01 A3038 RMK A01 T10011011  RH  093%=      5-min Rain = 0
KAI1 091814Z 34002KT M00/M01 A3038 RMK A01 T10011011  RH  093%=      5-min Rain = 0
KAI1 091815Z 34002KT 00/01 A3038 RMK A01 T00-00-10  RH  093%=      5-min Rain = 0
KAI1 091816Z 35002KT 00/01 A3038 RMK A01 T000000-9  RH  093%=      5-min Rain = 0
KAI1 091817Z 35002KT 00/01 A3038 RMK A01 T000000-9  RH  094%=      5-min Rain = 0
KAI1 091818Z 36002KT 00/01 A3037 RMK A01 T000000-9  RH  094%=      5-min Rain = 0
KAI1 091819Z 35002KT 00/01 A3037 RMK A01 T000000-9  RH  094%=      5-min Rain = 0
KAI1 091820Z 34002KT 00/01 A3037 RMK A01 T000000-9  RH  094%=      5-min Rain = 0
KAI1 091821Z 34002KT 00/01 A3037 RMK A01 T000000-9  RH  093%=      5-min Rain = 0
KAI1 091822Z 33002KT 00/01 A3037 RMK A01 T000000-9  RH  093%=      5-min Rain = 0
KAI1 091823Z 34002KT 00/01 A3037 RMK A01 T00000-10  RH  093%=      5-min Rain = 0
KAI1 091824Z 33002KT 00/01 A3037 RMK A01 T00000-10  RH  093%=      5-min Rain = 0
KAI1 091825Z 34002KT 00/01 A3037 RMK A01 T00000-10  RH  093%=      5-min Rain = 0
KAI1 091826Z 34003KT 00/M01 A3037 RMK A01 T00011010  RH  093%=      5-min Rain = 0
KAI1 091827Z 34002KT 00/01 A3037 RMK A01 T00000-10  RH  093%=      5-min Rain = 0
KAI1 091828Z 34002KT 00/01 A3037 RMK A01 T00000-10  RH  093%=      5-min Rain = 0
KAI1 091829Z 34002KT 00/M01 A3037 RMK A01 T00011010  RH  093%=      5-min Rain = 0
KAI1 091830Z 34003KT 00/M01 A3037 RMK A01 T00011010  RH  093%=      5-min Rain = 0
KAI1 091831Z 34004KT 00/01 A3037 RMK A01 T00000-11  RH  092%=      5-min Rain = 0
KAI1 091832Z 34004KT 00/01 A3037 RMK A01 T00000-11  RH  092%=      5-min Rain = 0
KAI1 091833Z 35003KT 00/01 A3037 RMK A01 T00000-11  RH  092%=      5-min Rain = 0
KAI1 091834Z 35003KT 00/01 A3036 RMK A01 T00000-12  RH  092%=      5-min Rain = 0
KAI1 091835Z 34004KT 00/01 A3036 RMK A01 T00000-12  RH  092%=      5-min Rain = 0
KAI1 091836Z 34004KT 00/01 A3036 RMK A01 T00-00-12  RH  091%=      5-min Rain = 0
KAI1 091837Z 35003KT 00/01 A3036 RMK A01 T00-00-13  RH  091%=      5-min Rain = 0
KAI1 091838Z 35003KT 00/01 A3036 RMK A01 T00-00-13  RH  091%=      5-min Rain = 0
KAI1 091839Z 34003KT 00/01 A3036 RMK A01 T00000-12  RH  091%=      5-min Rain = 0
KAI1 091840Z 34004KT 00/M01 A3036 RMK A01 T00011012  RH  091%=      5-min Rain = 0
KAI1 091841Z 33003KT 00/01 A3036 RMK A01 T00000-12  RH  091%=      5-min Rain = 0
KAI1 091842Z 34004KT 00/01 A3036 RMK A01 T00000-12  RH  091%=      5-min Rain = 0
KAI1 091843Z 34004KT 00/01 A3036 RMK A01 T00000-13  RH  091%=      5-min Rain = 0
KAI1 091844Z 34003KT 00/01 A3036 RMK A01 T00000-13  RH  091%=      5-min Rain = 0
KAI1 091845Z 34003KT 00/01 A3036 RMK A01 T00000-13  RH  091%=      5-min Rain = 0
KAI1 091846Z 33003KT 00/M01 A3036 RMK A01 T00011013  RH  091%=      5-min Rain = 0
KAI1 091847Z 33004KT 00/M01 A3036 RMK A01 T00011012  RH  091%=      5-min Rain = 0
KAI1 091848Z 33004KT 00/M01 A3036 RMK A01 T00011012  RH  091%=      5-min Rain = 0
KAI1 091849Z 33004KT 00/M01 A3036 RMK A01 T00011012  RH  091%=      5-min Rain = 0
KAI1 091850Z 34004KT 00/M01 A3036 RMK A01 T00011012  RH  091%=      5-min Rain = 0
KAI1 091851Z 33004KT 00/M01 A3036 RMK A01 T00011012  RH  091%=      5-min Rain = 0
KAI1 091852Z 33004KT 00/M01 A3036 RMK A01 T00011012  RH  091%=      5-min Rain = 0
KAI1 091853Z 33005KT 00/M01 A3036 RMK A01 T00021012  RH  091%=      5-min Rain = 0
KAI1 091854Z 33005KT 00/M01 A3036 RMK A01 T00021012  RH  090%=      5-min Rain = 0
KAI1 091855Z 33004KT 00/M01 A3036 RMK A01 T00021013  RH  090%=      5-min Rain = 0
KAI1 091856Z 34004KT 00/M01 A3036 RMK A01 T00021013  RH  090%=      5-min Rain = 0
KAI1 091857Z 34004KT 00/M01 A3035 RMK A01 T00021013  RH  090%=      5-min Rain = 0
KAI1 091858Z 34005KT 00/M01 A3035 RMK A01 T00021013  RH  090%=      5-min Rain = 0
KAI1 091859Z 34005KT 00/M01 A3035 RMK A01 T00021012  RH  090%=      5-min Rain = 0
KAI1 091900Z 34004KT 00/M01 A3035 RMK A01 T00021013  RH  090%=      5-min Rain = 0
KAI1 091901Z 35004KT 00/M01 A3035 RMK A01 T00021013  RH  090%=      5-min Rain = 0
KAI1 091902Z 34004KT 00/M01 A3035 RMK A01 T00031013  RH  089%=      5-min Rain = 0
KAI1 091903Z 34004KT 00/M01 A3035 RMK A01 T00031013  RH  089%=      5-min Rain = 0
KAI1 091904Z 33004KT 00/M01 A3035 RMK A01 T00031012  RH  089%=      5-min Rain = 0
KAI1 091905Z 34005KT 00/M01 A3035 RMK A01 T00041012  RH  089%=      5-min Rain = 0
KAI1 091906Z 34004KT 00/M01 A3035 RMK A01 T00041012  RH  089%=      5-min Rain = 0
KAI1 091907Z 35005KT 00/M01 A3035 RMK A01 T00041013  RH  089%=      5-min Rain = 0
KAI1 091908Z 35004KT 00/M01 A3035 RMK A01 T00041013  RH  088%=      5-min Rain = 0
KAI1 091909Z 35003KT 01/M01 A3035 RMK A01 T00051013  RH  088%=      5-min Rain = 0
KAI1 091910Z 33004KT 01/M01 A3035 RMK A01 T00051012  RH  089%=      5-min Rain = 0
KAI1 091911Z 34004KT 01/M01 A3035 RMK A01 T00051011  RH  089%=      5-min Rain = 0
KAI1 091912Z 33004KT 01/M01 A3035 RMK A01 T00051011  RH  089%=      5-min Rain = 0
KAI1 091913Z 33004KT 01/M01 A3035 RMK A01 T00051012  RH  088%=      5-min Rain = 0
KAI1 091914Z 34003KT 01/M01 A3035 RMK A01 T00051012  RH  088%=      5-min Rain = 0
KAI1 091915Z 34003KT 01/M01 A3035 RMK A01 T00061012  RH  088%=      5-min Rain = 0
KAI1 091916Z 35003KT 01/M01 A3035 RMK A01 T00061012  RH  088%=      5-min Rain = 0
KAI1 091917Z 34004KT 01/M01 A3035 RMK A01 T00071011  RH  088%=      5-min Rain = 0
KAI1 091918Z 33004KT 01/M01 A3035 RMK A01 T00071011  RH  088%=      5-min Rain = 0
KAI1 091919Z 34004KT 01/M01 A3035 RMK A01 T00071012  RH  087%=      5-min Rain = 0
KAI1 091920Z 34004KT 01/M01 A3035 RMK A01 T00071012  RH  087%=      5-min Rain = 0
KAI1 091921Z 34004KT 01/M01 A3035 RMK A01 T00071012  RH  087%=      5-min Rain = 0
KAI1 091922Z 34003KT 01/M01 A3035 RMK A01 T00071012  RH  087%=      5-min Rain = 0
KAI1 091923Z 34004KT 01/M01 A3035 RMK A01 T00081012  RH  087%=      5-min Rain = 0
KAI1 091924Z 33003KT 01/M01 A3035 RMK A01 T00081012  RH  086%=      5-min Rain = 0
KAI1 091925Z 33004KT 01/M01 A3035 RMK A01 T00081013  RH  086%=      5-min Rain = 0
KAI1 091926Z 34004KT 01/M01 A3035 RMK A01 T00081013  RH  086%=      5-min Rain = 0
KAI1 091927Z 34003KT 01/M01 A3035 RMK A01 T00081013  RH  086%=      5-min Rain = 0
KAI1 091928Z 34003KT 01/M01 A3035 RMK A01 T00091013  RH  086%=      5-min Rain = 0
KAI1 091929Z 35004KT 01/M01 A3035 RMK A01 T00091012  RH  086%=      5-min Rain = 0
KAI1 091930Z 36004KT 01/M01 A3035 RMK A01 T00091012  RH  086%=      5-min Rain = 0
KAI1 091931Z 35004KT 01/M01 A3035 RMK A01 T00091012  RH  086%=      5-min Rain = 0
KAI1 091932Z 35003KT 01/M01 A3035 RMK A01 T00091012  RH  085%=      5-min Rain = 0
KAI1 091933Z 35003KT 01/M01 A3035 RMK A01 T00101012  RH  086%=      5-min Rain = 0
KAI1 091934Z 35002KT 01/M01 A3035 RMK A01 T00101011  RH  086%=      5-min Rain = 0
KAI1 091935Z 36004KT 01/M01 A3035 RMK A01 T00101011  RH  086%=      5-min Rain = 0
KAI1 091936Z 35003KT 01/M01 A3035 RMK A01 T00101011  RH  086%=      5-min Rain = 0
KAI1 091937Z 34003KT 01/M01 A3035 RMK A01 T00111010  RH  086%=      5-min Rain = 0
KAI1 091938Z 34003KT 01/M01 A3035 RMK A01 T00101011  RH  086%=      5-min Rain = 0
KAI1 091939Z 34004KT 01/M01 A3035 RMK A01 T00111011  RH  085%=      5-min Rain = 0
KAI1 091940Z 34004KT 01/M01 A3035 RMK A01 T00111012  RH  085%=      5-min Rain = 0
KAI1 091941Z 35003KT 01/M01 A3035 RMK A01 T00111013  RH  084%=      5-min Rain = 0
KAI1 091942Z 35003KT 01/M01 A3035 RMK A01 T00111012  RH  084%=      5-min Rain = 0
KAI1 091943Z 35003KT 01/M01 A3035 RMK A01 T00121011  RH  085%=      5-min Rain = 0
KAI1 091944Z 34003KT 01/M01 A3035 RMK A01 T00121012  RH  084%=      5-min Rain = 0
KAI1 091945Z 35003KT 01/M01 A3035 RMK A01 T00121011  RH  084%=      5-min Rain = 0
KAI1 091946Z 00003KT 01/M01 A3035 RMK A01 T00121012  RH  084%=      5-min Rain = 0
KAI1 091947Z 35003KT 01/M01 A3035 RMK A01 T00131012  RH  084%=      5-min Rain = 0
KAI1 091948Z 35003KT 01/M01 A3035 RMK A01 T00131012  RH  083%=      5-min Rain = 0
KAI1 091949Z 35003KT 01/M01 A3035 RMK A01 T00141013  RH  082%=      5-min Rain = 0
KAI1 091950Z 34004KT 01/M01 A3035 RMK A01 T00141013  RH  082%=      5-min Rain = 0
KAI1 091951Z 34004KT 01/M01 A3035 RMK A01 T00141012  RH  083%=      5-min Rain = 0
KAI1 091952Z 35004KT 01/M01 A3035 RMK A01 T00141013  RH  083%=      5-min Rain = 0
KAI1 091953Z 35003KT 01/M01 A3035 RMK A01 T00141013  RH  082%=      5-min Rain = 0
KAI1 091954Z 35004KT 01/M01 A3035 RMK A01 T00141013  RH  083%=      5-min Rain = 0
KAI1 091955Z 35004KT 01/M01 A3035 RMK A01 T00141012  RH  083%=      5-min Rain = 0
KAI1 091956Z 35004KT 01/M01 A3035 RMK A01 T00141013  RH  082%=      5-min Rain = 0
KAI1 091957Z 35004KT 02/M01 A3035 RMK A01 T00151012  RH  082%=      5-min Rain = 0
KAI1 091958Z 33004KT 02/M01 A3035 RMK A01 T00151012  RH  082%=      5-min Rain = 0
KAI1 091959Z 34004KT 02/M01 A3035 RMK A01 T00151014  RH  081%=      5-min Rain = 0
KAI1 092000Z 33004KT 01/M01 A3035 RMK A01 T00141014  RH  082%=      5-min Rain = 0
KAI1 092001Z 33004KT 01/M01 A3035 RMK A01 T00141013  RH  082%=      5-min Rain = 0
KAI1 092002Z 33003KT 01/M02 A3035 RMK A01 T00141015  RH  081%=      5-min Rain = 0
KAI1 092003Z 33003KT 02/M02 A3035 RMK A01 T00151015  RH  081%=      5-min Rain = 0
KAI1 092004Z 33003KT 02/M02 A3035 RMK A01 T00161015  RH  080%=      5-min Rain = 0
KAI1 092005Z 34002KT 02/M01 A3035 RMK A01 T00161014  RH  080%=      5-min Rain = 0
KAI1 092006Z 34002KT 02/M01 A3035 RMK A01 T00171013  RH  081%=      5-min Rain = 0
KAI1 092007Z 34003KT 02/M01 A3035 RMK A01 T00181012  RH  080%=      5-min Rain = 0
KAI1 092008Z 34003KT 02/M01 A3035 RMK A01 T00181013  RH  079%=      5-min Rain = 0
KAI1 092009Z 34003KT 02/M02 A3035 RMK A01 T00191015  RH  078%=      5-min Rain = 0
KAI1 092010Z 35003KT 02/M02 A3035 RMK A01 T00201018  RH  076%=      5-min Rain = 0
KAI1 092011Z 33002KT 02/M02 A3035 RMK A01 T00211019  RH  075%=      5-min Rain = 0
KAI1 092012Z 34002KT 02/M02 A3035 RMK A01 T00221017  RH  076%=      5-min Rain = 0
KAI1 092013Z 35002KT 02/M02 A3035 RMK A01 T00221016  RH  076%=      5-min Rain = 0
KAI1 092014Z 01002KT 02/M02 A3035 RMK A01 T00221017  RH  075%=      5-min Rain = 0
KAI1 092015Z 36003KT 02/M02 A3034 RMK A01 T00221017  RH  075%=      5-min Rain = 0
KAI1 092016Z 35002KT 02/M02 A3034 RMK A01 T00221015  RH  076%=      5-min Rain = 0
KAI1 092017Z 36003KT 02/M02 A3034 RMK A01 T00221018  RH  075%=      5-min Rain = 0
KAI1 092018Z 36003KT 02/M02 A3034 RMK A01 T00231020  RH  073%=      5-min Rain = 0
KAI1 092019Z 36003KT 02/M02 A3034 RMK A01 T00231020  RH  073%=      5-min Rain = 0
KAI1 092020Z 01003KT 02/M02 A3034 RMK A01 T00241021  RH  072%=      5-min Rain = 0
KAI1 092021Z 01004KT 02/M02 A3034 RMK A01 T00241021  RH  072%=      5-min Rain = 0
KAI1 092022Z 35003KT 02/M02 A3034 RMK A01 T00241021  RH  072%=      5-min Rain = 0
KAI1 092023Z 36003KT 02/M02 A3034 RMK A01 T00241021  RH  072%=      5-min Rain = 0
KAI1 092024Z 00004KT 02/M02 A3034 RMK A01 T00241021  RH  072%=      5-min Rain = 0
KAI1 092025Z 00003KT 02/M02 A3034 RMK A01 T00241022  RH  072%=      5-min Rain = 0
KAI1 092026Z 01003KT 02/M02 A3034 RMK A01 T00241021  RH  072%=      5-min Rain = 0
KAI1 092027Z 00004KT 03/M02 A3034 RMK A01 T00251022  RH  071%=      5-min Rain = 0
KAI1 092028Z 36003KT 03/M02 A3034 RMK A01 T00251022  RH  071%=      5-min Rain = 0
KAI1 092029Z 01003KT 03/M02 A3034 RMK A01 T00251024  RH  070%=      5-min Rain = 0
KAI1 092030Z 01003KT 03/M03 A3034 RMK A01 T00251026  RH  069%=      5-min Rain = 0
KAI1 092031Z 01003KT 03/M03 A3034 RMK A01 T00261026  RH  069%=      5-min Rain = 0
KAI1 092032Z 01003KT 03/M03 A3034 RMK A01 T00281026  RH  068%=      5-min Rain = 0
KAI1 092033Z 01003KT 03/M03 A3034 RMK A01 T00291030  RH  065%=      5-min Rain = 0
KAI1 092034Z 00003KT 03/M03 A3034 RMK A01 T00301029  RH  065%=      5-min Rain = 0
KAI1 092035Z 36002KT 03/M03 A3034 RMK A01 T00301030  RH  065%=      5-min Rain = 0
KAI1 092036Z 01002KT 03/M03 A3034 RMK A01 T00301029  RH  065%=      5-min Rain = 0
KAI1 092037Z 01002KT 03/M03 A3034 RMK A01 T00311030  RH  064%=      5-min Rain = 0
KAI1 092038Z 36002KT 03/M03 A3034 RMK A01 T00331032  RH  062%=      5-min Rain = 0
KAI1 092039Z 01003KT 03/M03 A3034 RMK A01 T00341031  RH  062%=      5-min Rain = 0
KAI1 092040Z 00002KT 03/M03 A3034 RMK A01 T00341032  RH  062%=      5-min Rain = 0
KAI1 092041Z 01001KT 04/M03 A3034 RMK A01 T00351033  RH  061%=      5-min Rain = 0
KAI1 092042Z 36001KT 04/M03 A3033 RMK A01 T00361032  RH  061%=      5-min Rain = 0
KAI1 092043Z 02001KT 04/M03 A3033 RMK A01 T00371032  RH  061%=      5-min Rain = 0
KAI1 092044Z 02000KT 04/M03 A3033 RMK A01 T00381033  RH  060%=      5-min Rain = 0
KAI1 092045Z 01001KT 04/M03 A3033 RMK A01 T00391034  RH  059%=      5-min Rain = 0
KAI1 092046Z 01000KT 04/M03 A3033 RMK A01 T00411032  RH  059%=      5-min Rain = 0
KAI1 092047Z 01000KT 04/M03 A3033 RMK A01 T00421031  RH  059%=      5-min Rain = 0
KAI1 092048Z 01000KT 04/M03 A3033 RMK A01 T00431032  RH  058%=      5-min Rain = 0
KAI1 092049Z 01000KT 05/M03 A3033 RMK A01 T00451031  RH  058%=      5-min Rain = 0
KAI1 092050Z 01000KT 05/M03 A3033 RMK A01 T00461032  RH  057%=      5-min Rain = 0
KAI1 092051Z 01000KT 05/M03 A3033 RMK A01 T00461032  RH  057%=      5-min Rain = 0
KAI1 092052Z 01000KT 05/M03 A3033 RMK A01 T00471032  RH  057%=      5-min Rain = 0
KAI1 092053Z 00000KT 05/M03 A3033 RMK A01 T00471032  RH  057%=      5-min Rain = 0
KAI1 092054Z 01000KT 05/M04 A3033 RMK A01 T00471035  RH  055%=      5-min Rain = 0
KAI1 092055Z 01000KT 05/M03 A3033 RMK A01 T00471034  RH  056%=      5-min Rain = 0
KAI1 092056Z 01000KT 05/M04 A3033 RMK A01 T00471036  RH  055%=      5-min Rain = 0
KAI1 092057Z 00000KT 05/M03 A3033 RMK A01 T00471034  RH  056%=      5-min Rain = 0
KAI1 092058Z 00000KT 05/M03 A3033 RMK A01 T00471032  RH  057%=      5-min Rain = 0
KAI1 092059Z 00000KT 05/M03 A3033 RMK A01 T00491032  RH  056%=      5-min Rain = 0
KAI1 092100Z 10000KT 05/M03 A3034 RMK A01 T00521028  RH  056%=      5-min Rain = 0
KAI1 092101Z 07001KT 05/M03 A3034 RMK A01 T00521031  RH  055%=      5-min Rain = 0
KAI1 092102Z 06001KT 05/M04 A3034 RMK A01 T00471036  RH  055%=      5-min Rain = 0
KAI1 092103Z 06000KT 04/M04 A3034 RMK A01 T00441035  RH  057%=      5-min Rain = 0
KAI1 092104Z 06001KT 04/M03 A3034 RMK A01 T00421033  RH  058%=      5-min Rain = 0
KAI1 092105Z 06002KT 04/M03 A3034 RMK A01 T00401031  RH  060%=      5-min Rain = 0
KAI1 092106Z 05002KT 04/M03 A3034 RMK A01 T00391034  RH  059%=      5-min Rain = 0
KAI1 092107Z 05002KT 04/M04 A3034 RMK A01 T00371036  RH  059%=      5-min Rain = 0
KAI1 092108Z 04002KT 04/M03 A3034 RMK A01 T00371032  RH  061%=      5-min Rain = 0
KAI1 092109Z 04001KT 04/M03 A3034 RMK A01 T00361031  RH  062%=      5-min Rain = 0
KAI1 092110Z 06001KT 04/M03 A3034 RMK A01 T00351030  RH  062%=      5-min Rain = 0
KAI1 092111Z 09001KT 04/M03 A3034 RMK A01 T00361025  RH  064%=      5-min Rain = 0
KAI1 092112Z 11001KT 04/M02 A3034 RMK A01 T00381024  RH  064%=      5-min Rain = 0
KAI1 092113Z 12002KT 04/M03 A3034 RMK A01 T00421028  RH  061%=      5-min Rain = 0
KAI1 092114Z 13002KT 05/M03 A3034 RMK A01 T00451031  RH  058%=      5-min Rain = 0
KAI1 092115Z 14002KT 05/M03 A3034 RMK A01 T00481031  RH  057%=      5-min Rain = 0
KAI1 092116Z 13002KT 05/M03 A3034 RMK A01 T00491032  RH  056%=      5-min Rain = 0
KAI1 092117Z 13002KT 05/M03 A3034 RMK A01 T00501033  RH  055%=      5-min Rain = 0
KAI1 092118Z 13002KT 05/M03 A3034 RMK A01 T00501032  RH  056%=      5-min Rain = 0
KAI1 092119Z 13002KT 05/M03 A3034 RMK A01 T00491032  RH  056%=      5-min Rain = 0
KAI1 092120Z 13002KT 05/M03 A3034 RMK A01 T00491030  RH  057%=      5-min Rain = 0
KAI1 092121Z 13002KT 05/M03 A3034 RMK A01 T00491030  RH  057%=      5-min Rain = 0
KAI1 092122Z 13002KT 05/M03 A3034 RMK A01 T00491031  RH  057%=      5-min Rain = 0
KAI1 092123Z 14002KT 05/M03 A3034 RMK A01 T00491030  RH  056%=      5-min Rain = 0
KAI1 092124Z 14002KT 05/M03 A3034 RMK A01 T00501030  RH  056%=      5-min Rain = 0
KAI1 092125Z 14002KT 05/M03 A3034 RMK A01 T00521031  RH  055%=      5-min Rain = 0
KAI1 092126Z 14002KT 05/M03 A3034 RMK A01 T00531031  RH  055%=      5-min Rain = 0
KAI1 092127Z 14001KT 05/M03 A3034 RMK A01 T00531031  RH  055%=      5-min Rain = 0
KAI1 092128Z 14002KT 05/M03 A3034 RMK A01 T00521030  RH  055%=      5-min Rain = 0
KAI1 092129Z 14002KT 05/M03 A3034 RMK A01 T00521029  RH  056%=      5-min Rain = 0
KAI1 092130Z 14001KT 05/M03 A3034 RMK A01 T00521030  RH  056%=      5-min Rain = 0
KAI1 092131Z 14001KT 05/M03 A3034 RMK A01 T00501033  RH  055%=      5-min Rain = 0
KAI1 092132Z 16002KT 05/M03 A3034 RMK A01 T00481030  RH  057%=      5-min Rain = 0
KAI1 092133Z 16003KT 05/M03 A3033 RMK A01 T00491030  RH  057%=      5-min Rain = 0
KAI1 092134Z 17003KT 05/M03 A3033 RMK A01 T00491030  RH  057%=      5-min Rain = 0
KAI1 092135Z 17003KT 05/M03 A3033 RMK A01 T00491030  RH  057%=      5-min Rain = 0
KAI1 092136Z 16003KT 05/M03 A3033 RMK A01 T00501028  RH  057%=      5-min Rain = 0
KAI1 092137Z 16003KT 05/M03 A3033 RMK A01 T00521026  RH  057%=      5-min Rain = 0
KAI1 092138Z 15003KT 05/M03 A3033 RMK A01 T00531026  RH  057%=      5-min Rain = 0
KAI1 092139Z 15003KT 05/M03 A3033 RMK A01 T00541027  RH  056%=      5-min Rain = 0
KAI1 092140Z 15003KT 05/M03 A3033 RMK A01 T00541027  RH  056%=      5-min Rain = 0
KAI1 092141Z 15003KT 05/M03 A3033 RMK A01 T00521027  RH  057%=      5-min Rain = 0
KAI1 092142Z 15003KT 05/M03 A3033 RMK A01 T00511028  RH  057%=      5-min Rain = 0
KAI1 092143Z 14003KT 05/M03 A3033 RMK A01 T00501028  RH  057%=      5-min Rain = 0
KAI1 092144Z 14003KT 05/M03 A3033 RMK A01 T00491028  RH  058%=      5-min Rain = 0
KAI1 092145Z 15003KT 05/M03 A3033 RMK A01 T00481029  RH  058%=      5-min Rain = 0
KAI1 092146Z 14003KT 05/M03 A3033 RMK A01 T00471029  RH  058%=      5-min Rain = 0
KAI1 092147Z 14003KT 05/M03 A3033 RMK A01 T00481029  RH  058%=      5-min Rain = 0
KAI1 092148Z 14003KT 05/M03 A3033 RMK A01 T00481030  RH  057%=      5-min Rain = 0
KAI1 092149Z 14003KT 05/M03 A3033 RMK A01 T00481029  RH  058%=      5-min Rain = 0
KAI1 092150Z 14003KT 05/M03 A3033 RMK A01 T00481029  RH  057%=      5-min Rain = 0
KAI1 092151Z 15003KT 05/M03 A3033 RMK A01 T00481030  RH  057%=      5-min Rain = 0
KAI1 092152Z 16003KT 05/M03 A3033 RMK A01 T00481029  RH  057%=      5-min Rain = 0
KAI1 092153Z 16003KT 05/M03 A3033 RMK A01 T00491028  RH  057%=      5-min Rain = 0
KAI1 092154Z 16004KT 05/M03 A3033 RMK A01 T00501029  RH  057%=      5-min Rain = 0
KAI1 092155Z 16003KT 05/M03 A3033 RMK A01 T00491031  RH  056%=      5-min Rain = 0
KAI1 092156Z 16003KT 05/M03 A3033 RMK A01 T00491032  RH  056%=      5-min Rain = 0
KAI1 092157Z 16003KT 05/M03 A3033 RMK A01 T00501031  RH  056%=      5-min Rain = 0
KAI1 092158Z 16003KT 05/M03 A3034 RMK A01 T00521032  RH  055%=      5-min Rain = 0
KAI1 092159Z 16003KT 05/M03 A3034 RMK A01 T00531032  RH  055%=      5-min Rain = 0
KAI1 092200Z 16003KT 05/M03 A3034 RMK A01 T00541031  RH  055%=      5-min Rain = 0
KAI1 092201Z 16003KT 06/M03 A3034 RMK A01 T00551029  RH  055%=      5-min Rain = 0
KAI1 092202Z 16003KT 06/M03 A3034 RMK A01 T00561029  RH  054%=      5-min Rain = 0
KAI1 092203Z 16003KT 06/M03 A3034 RMK A01 T00561031  RH  053%=      5-min Rain = 0
KAI1 092204Z 16002KT 06/M03 A3034 RMK A01 T00571031  RH  053%=      5-min Rain = 0
KAI1 092205Z 16002KT 06/M03 A3034 RMK A01 T00591031  RH  053%=      5-min Rain = 0
KAI1 092206Z 16002KT 06/M03 A3034 RMK A01 T00601029  RH  053%=      5-min Rain = 0
KAI1 092207Z 16002KT 06/M03 A3034 RMK A01 T00601029  RH  053%=      5-min Rain = 0
KAI1 092208Z 16002KT 06/M03 A3034 RMK A01 T00611027  RH  053%=      5-min Rain = 0
KAI1 092209Z 16002KT 06/M03 A3034 RMK A01 T00611026  RH  053%=      5-min Rain = 0
KAI1 092210Z 16002KT 06/M03 A3034 RMK A01 T00621027  RH  053%=      5-min Rain = 0
KAI1 092211Z 16002KT 06/M03 A3034 RMK A01 T00631027  RH  053%=      5-min Rain = 0
KAI1 092212Z 16002KT 06/M03 A3034 RMK A01 T00631029  RH  052%=      5-min Rain = 0
KAI1 092213Z 16002KT 06/M03 A3034 RMK A01 T00621029  RH  052%=      5-min Rain = 0
KAI1 092214Z 16002KT 06/M03 A3034 RMK A01 T00611030  RH  052%=      5-min Rain = 0
KAI1 092215Z 16002KT 06/M03 A3034 RMK A01 T00601031  RH  052%=      5-min Rain = 0
KAI1 092216Z 16002KT 06/M03 A3034 RMK A01 T00591030  RH  053%=      5-min Rain = 0
KAI1 092217Z 15002KT 06/M03 A3033 RMK A01 T00591029  RH  053%=      5-min Rain = 0
KAI1 092218Z 15003KT 06/M03 A3033 RMK A01 T00591029  RH  053%=      5-min Rain = 0
KAI1 092219Z 16003KT 06/M03 A3033 RMK A01 T00591029  RH  053%=      5-min Rain = 0
KAI1 092220Z 16003KT 06/M03 A3033 RMK A01 T00581031  RH  053%=      5-min Rain = 0
KAI1 092221Z 15003KT 06/M03 A3033 RMK A01 T00591031  RH  053%=      5-min Rain = 0
KAI1 092222Z 15003KT 06/M03 A3033 RMK A01 T00581031  RH  053%=      5-min Rain = 0
KAI1 092223Z 16003KT 06/M03 A3033 RMK A01 T00591029  RH  053%=      5-min Rain = 0
KAI1 092224Z 16003KT 06/M03 A3033 RMK A01 T00581029  RH  053%=      5-min Rain = 0
KAI1 092225Z 16003KT 06/M03 A3033 RMK A01 T00581029  RH  054%=      5-min Rain = 0
KAI1 092226Z 16003KT 06/M03 A3033 RMK A01 T00571029  RH  054%=      5-min Rain = 0
KAI1 092227Z 16003KT 06/M03 A3034 RMK A01 T00561030  RH  054%=      5-min Rain = 0
KAI1 092228Z 16003KT 06/M03 A3034 RMK A01 T00551030  RH  054%=      5-min Rain = 0
KAI1 092229Z 16003KT 06/M03 A3033 RMK A01 T00551030  RH  054%=      5-min Rain = 0
KAI1 092230Z 16003KT 05/M03 A3033 RMK A01 T00541031  RH  054%=      5-min Rain = 0
KAI1 092231Z 16003KT 05/M03 A3033 RMK A01 T00541031  RH  054%=      5-min Rain = 0
KAI1 092232Z 17003KT 05/M03 A3033 RMK A01 T00541029  RH  055%=      5-min Rain = 0
KAI1 092233Z 17003KT 05/M03 A3033 RMK A01 T00541029  RH  055%=      5-min Rain = 0
KAI1 092234Z 17003KT 05/M03 A3033 RMK A01 T00531030  RH  055%=      5-min Rain = 0
KAI1 092235Z 17002KT 05/M03 A3034 RMK A01 T00531029  RH  055%=      5-min Rain = 0
KAI1 092236Z 17002KT 05/M03 A3034 RMK A01 T00521030  RH  056%=      5-min Rain = 0
KAI1 092237Z 17002KT 05/M03 A3034 RMK A01 T00511030  RH  056%=      5-min Rain = 0
KAI1 092238Z 17002KT 05/M03 A3034 RMK A01 T00501031  RH  056%=      5-min Rain = 0
KAI1 092239Z 17002KT 05/M03 A3034 RMK A01 T00491030  RH  057%=      5-min Rain = 0
KAI1 092240Z 17002KT 05/M03 A3034 RMK A01 T00481030  RH  057%=      5-min Rain = 0
KAI1 092241Z 17002KT 05/M03 A3034 RMK A01 T00471030  RH  057%=      5-min Rain = 0
KAI1 092242Z 17002KT 05/M03 A3034 RMK A01 T00461031  RH  058%=      5-min Rain = 0
KAI1 092243Z 18003KT 04/M03 A3034 RMK A01 T00441032  RH  058%=      5-min Rain = 0
KAI1 092244Z 18003KT 04/M03 A3034 RMK A01 T00411032  RH  059%=      5-min Rain = 0
KAI1 092245Z 19003KT 04/M03 A3034 RMK A01 T00371033  RH  060%=      5-min Rain = 0
KAI1 092246Z 20003KT 03/M03 A3034 RMK A01 T00341032  RH  062%=      5-min Rain = 0
KAI1 092247Z 20003KT 03/M03 A3034 RMK A01 T00321032  RH  063%=      5-min Rain = 0
KAI1 092248Z 20003KT 03/M03 A3034 RMK A01 T00301032  RH  064%=      5-min Rain = 0
KAI1 092249Z 20003KT 03/M03 A3034 RMK A01 T00291030  RH  065%=      5-min Rain = 0
KAI1 092250Z 21003KT 03/M03 A3034 RMK A01 T00291030  RH  065%=      5-min Rain = 0
KAI1 092251Z 22004KT 03/M03 A3034 RMK A01 T00291028  RH  066%=      5-min Rain = 0
KAI1 092252Z 22004KT 03/M03 A3034 RMK A01 T00311030  RH  064%=      5-min Rain = 0
KAI1 092253Z 22004KT 03/M03 A3034 RMK A01 T00321031  RH  064%=      5-min Rain = 0
KAI1 092254Z 22004KT 03/M03 A3034 RMK A01 T00331030  RH  063%=      5-min Rain = 0
KAI1 092255Z 22004KT 03/M03 A3034 RMK A01 T00331031  RH  063%=      5-min Rain = 0
KAI1 092256Z 22003KT 03/M03 A3034 RMK A01 T00331031  RH  063%=      5-min Rain = 0
KAI1 092257Z 22003KT 03/M03 A3034 RMK A01 T00331032  RH  062%=      5-min Rain = 0
KAI1 092258Z 22003KT 03/M03 A3034 RMK A01 T00331032  RH  062%=      5-min Rain = 0
KAI1 092259Z 22003KT 03/M03 A3034 RMK A01 T00331031  RH  063%=      5-min Rain = 0
KAI1 092300Z 21003KT 03/M03 A3034 RMK A01 T00331031  RH  063%=      5-min Rain = 0
KAI1 092301Z 21004KT 03/M03 A3034 RMK A01 T00331031  RH  063%=      5-min Rain = 0
KAI1 092302Z 21003KT 03/M03 A3034 RMK A01 T00321032  RH  063%=      5-min Rain = 0
KAI1 092303Z 21004KT 03/M03 A3034 RMK A01 T00321031  RH  063%=      5-min Rain = 0
KAI1 092304Z 21004KT 03/M03 A3034 RMK A01 T00311031  RH  064%=      5-min Rain = 0
KAI1 092305Z 21004KT 03/M03 A3034 RMK A01 T00301031  RH  064%=      5-min Rain = 0
KAI1 092306Z 21004KT 03/M03 A3034 RMK A01 T00301031  RH  064%=      5-min Rain = 0
KAI1 092307Z 21004KT 03/M03 A3034 RMK A01 T00281031  RH  065%=      5-min Rain = 0
KAI1 092308Z 21004KT 03/M03 A3034 RMK A01 T00271031  RH  065%=      5-min Rain = 0
KAI1 092309Z 21004KT 03/M03 A3034 RMK A01 T00261031  RH  066%=      5-min Rain = 0
KAI1 092310Z 21004KT 03/M03 A3034 RMK A01 T00261031  RH  066%=      5-min Rain = 0
KAI1 092311Z 21004KT 02/M03 A3034 RMK A01 T00241031  RH  067%=      5-min Rain = 0
KAI1 092312Z 21004KT 02/M03 A3034 RMK A01 T00231032  RH  067%=      5-min Rain = 0
KAI1 092313Z 21004KT 02/M03 A3034 RMK A01 T00221031  RH  068%=      5-min Rain = 0
KAI1 092314Z 21004KT 02/M03 A3034 RMK A01 T00211032  RH  068%=      5-min Rain = 0
KAI1 092315Z 21004KT 02/M03 A3034 RMK A01 T00201032  RH  068%=      5-min Rain = 0
KAI1 092316Z 20005KT 02/M03 A3034 RMK A01 T00191033  RH  069%=      5-min Rain = 0
KAI1 092317Z 20005KT 02/M03 A3034 RMK A01 T00181033  RH  069%=      5-min Rain = 0
KAI1 092318Z 20005KT 02/M03 A3034 RMK A01 T00161034  RH  069%=      5-min Rain = 0
KAI1 092319Z 20005KT 02/M03 A3033 RMK A01 T00151034  RH  070%=      5-min Rain = 0
KAI1 092320Z 20005KT 01/M03 A3033 RMK A01 T00141034  RH  070%=      5-min Rain = 0
KAI1 092321Z 20006KT 01/M03 A3033 RMK A01 T00131034  RH  071%=      5-min Rain = 0
KAI1 092322Z 20006KT 01/M03 A3033 RMK A01 T00121034  RH  071%=      5-min Rain = 0
KAI1 092323Z 20006KT 01/M03 A3033 RMK A01 T00111034  RH  072%=      5-min Rain = 0
KAI1 092324Z 20006KT 01/M03 A3033 RMK A01 T00101034  RH  072%=      5-min Rain = 0
KAI1 092325Z 21006KT 01/M03 A3033 RMK A01 T00091034  RH  073%=      5-min Rain = 0
KAI1 092326Z 21006KT 01/M03 A3033 RMK A01 T00091034  RH  073%=      5-min Rain = 0
KAI1 092327Z 21005KT 01/M04 A3033 RMK A01 T00081035  RH  073%=      5-min Rain = 0
KAI1 092328Z 20006KT 01/M04 A3033 RMK A01 T00081035  RH  073%=      5-min Rain = 0
KAI1 092329Z 21006KT 01/M04 A3033 RMK A01 T00071035  RH  073%=      5-min Rain = 0
KAI1 092330Z 21006KT 01/M04 A3033 RMK A01 T00061036  RH  074%=      5-min Rain = 0
KAI1 092331Z 21006KT 00/M04 A3033 RMK A01 T00041036  RH  074%=      5-min Rain = 0
KAI1 092332Z 21006KT 00/M04 A3033 RMK A01 T00031037  RH  075%=      5-min Rain = 0
KAI1 092333Z 21006KT 00/M04 A3033 RMK A01 T00011038  RH  075%=      5-min Rain = 0
KAI1 092334Z 21006KT 00/04 A3033 RMK A01 T00-00-38  RH  076%=      5-min Rain = 0
KAI1 092335Z 21006KT M00/M04 A3033 RMK A01 T10021038  RH  076%=      5-min Rain = 0
KAI1 092336Z 21006KT M00/M04 A3033 RMK A01 T10031038  RH  077%=      5-min Rain = 0
KAI1 092337Z 21006KT M00/M04 A3033 RMK A01 T10041038  RH  077%=      5-min Rain = 0
KAI1 092338Z 21006KT M00/M04 A3033 RMK A01 T10031037  RH  078%=      5-min Rain = 0
KAI1 092339Z 21006KT M00/M04 A3033 RMK A01 T10041038  RH  078%=      5-min Rain = 0
KAI1 092340Z 21006KT M00/M04 A3033 RMK A01 T10041037  RH  078%=      5-min Rain = 0
KAI1 092341Z 21006KT M00/M04 A3033 RMK A01 T10041037  RH  079%=      5-min Rain = 0
KAI1 092342Z 21005KT M01/M04 A3033 RMK A01 T10051037  RH  079%=      5-min Rain = 0
KAI1 092343Z 21005KT M01/M04 A3034 RMK A01 T10051036  RH  079%=      5-min Rain = 0
KAI1 092344Z 21005KT M01/M04 A3034 RMK A01 T10051037  RH  079%=      5-min Rain = 0
KAI1 092345Z 22005KT M01/M04 A3034 RMK A01 T10051036  RH  079%=      5-min Rain = 0
KAI1 092346Z 22004KT M01/M04 A3034 RMK A01 T10061037  RH  079%=      5-min Rain = 0
KAI1 092347Z 22004KT M01/M04 A3034 RMK A01 T10061037  RH  079%=      5-min Rain = 0
KAI1 092348Z 22005KT M01/M04 A3034 RMK A01 T10061037  RH  079%=      5-min Rain = 0
KAI1 092349Z 22005KT M01/M04 A3034 RMK A01 T10071038  RH  079%=      5-min Rain = 0
KAI1 092350Z 22005KT M01/M04 A3034 RMK A01 T10071038  RH  079%=      5-min Rain = 0
KAI1 092351Z 22005KT M01/M04 A3034 RMK A01 T10071038  RH  079%=      5-min Rain = 0
KAI1 092352Z 22005KT M01/M04 A3034 RMK A01 T10071038  RH  080%=      5-min Rain = 0
KAI1 092353Z 21005KT M01/M04 A3034 RMK A01 T10071038  RH  080%=      5-min Rain = 0
KAI1 092354Z 21005KT M01/M04 A3034 RMK A01 T10071038  RH  080%=      5-min Rain = 0
KAI1 092355Z 21005KT M01/M04 A3034 RMK A01 T10081039  RH  080%=      5-min Rain = 0
KAI1 092356Z 21006KT M01/M04 A3034 RMK A01 T10091038  RH  080%=      5-min Rain = 0
KAI1 092357Z 21006KT M01/M04 A3034 RMK A01 T10091038  RH  081%=      5-min Rain = 0
KAI1 092358Z 21006KT M01/M04 A3034 RMK A01 T10101039  RH  081%=      5-min Rain = 0
KAI1 092359Z 22005KT M01/M04 A3034 RMK A01 T10101039  RH  081%=      5-min Rain = 0
KAI1 100000Z 22005KT M01/M04 A3034 RMK A01 T10111039  RH  081%=      5-min Rain = 0
KAI1 100001Z 22005KT M01/M04 A3034 RMK A01 T10111039  RH  081%=      5-min Rain = 0
KAI1 100002Z 22005KT M01/M04 A3034 RMK A01 T10121040  RH  081%=      5-min Rain = 0
KAI1 100003Z 23005KT M01/M04 A3034 RMK A01 T10121040  RH  082%=      5-min Rain = 0
KAI1 100004Z 23005KT M01/M04 A3034 RMK A01 T10131040  RH  082%=      5-min Rain = 0
KAI1 100005Z 23005KT M01/M04 A3034 RMK A01 T10131040  RH  082%=      5-min Rain = 0
KAI1 100006Z 23005KT M01/M04 A3034 RMK A01 T10131040  RH  082%=      5-min Rain = 0
KAI1 100007Z 23005KT M01/M04 A3034 RMK A01 T10141041  RH  082%=      5-min Rain = 0
KAI1 100008Z 23005KT M02/M04 A3034 RMK A01 T10151042  RH  082%=      5-min Rain = 0
KAI1 100009Z 23005KT M02/M04 A3034 RMK A01 T10161042  RH  083%=      5-min Rain = 0
KAI1 100010Z 23005KT M02/M04 A3034 RMK A01 T10151041  RH  083%=      5-min Rain = 0
KAI1 100011Z 23004KT M02/M04 A3034 RMK A01 T10161041  RH  083%=      5-min Rain = 0
KAI1 100012Z 23004KT M02/M04 A3034 RMK A01 T10161040  RH  083%=      5-min Rain = 0
KAI1 100013Z 23004KT M02/M04 A3034 RMK A01 T10161041  RH  083%=      5-min Rain = 0
KAI1 100014Z 23004KT M02/M04 A3034 RMK A01 T10161040  RH  084%=      5-min Rain = 0
KAI1 100015Z 23005KT M02/M04 A3034 RMK A01 T10161040  RH  084%=      5-min Rain = 0
KAI1 100016Z 23005KT M02/M04 A3034 RMK A01 T10171040  RH  084%=      5-min Rain = 0
KAI1 100017Z 23005KT M02/M04 A3034 RMK A01 T10171040  RH  084%=      5-min Rain = 0
KAI1 100018Z 23005KT M02/M04 A3034 RMK A01 T10171040  RH  084%=      5-min Rain = 0
KAI1 100019Z 23005KT M02/M04 A3034 RMK A01 T10181040  RH  084%=      5-min Rain = 0
KAI1 100020Z 24005KT M02/M04 A3034 RMK A01 T10171040  RH  085%=      5-min Rain = 0
KAI1 100021Z 24005KT M02/M04 A3035 RMK A01 T10181040  RH  085%=      5-min Rain = 0
KAI1 100022Z 24005KT M02/M04 A3035 RMK A01 T10181041  RH  085%=      5-min Rain = 0
KAI1 100023Z 24004KT M02/M04 A3035 RMK A01 T10181040  RH  085%=      5-min Rain = 0
KAI1 100024Z 24004KT M02/M04 A3035 RMK A01 T10181040  RH  085%=      5-min Rain = 0
KAI1 100025Z 23004KT M02/M04 A3035 RMK A01 T10181040  RH  085%=      5-min Rain = 0
KAI1 100026Z 23004KT M02/M04 A3035 RMK A01 T10191040  RH  085%=      5-min Rain = 0
KAI1 100027Z 23004KT M02/M04 A3035 RMK A01 T10191040  RH  085%=      5-min Rain = 0
KAI1 100028Z 23003KT M02/M04 A3035 RMK A01 T10191040  RH  085%=      5-min Rain = 0
KAI1 100029Z 22003KT M02/M04 A3035 RMK A01 T10191040  RH  085%=      5-min Rain = 0
KAI1 100030Z 22003KT M02/M04 A3035 RMK A01 T10191040  RH  086%=      5-min Rain = 0
KAI1 100031Z 22004KT M02/M04 A3035 RMK A01 T10201041  RH  086%=      5-min Rain = 0
KAI1 100032Z 22004KT M02/M04 A3035 RMK A01 T10211040  RH  086%=      5-min Rain = 0
KAI1 100033Z 23004KT M02/M04 A3035 RMK A01 T10211040  RH  087%=      5-min Rain = 0
KAI1 100034Z 23004KT M02/M04 A3035 RMK A01 T10211039  RH  087%=      5-min Rain = 0
KAI1 100035Z 23004KT M02/M04 A3035 RMK A01 T10201039  RH  087%=      5-min Rain = 0
KAI1 100036Z 23004KT M02/M04 A3035 RMK A01 T10201039  RH  087%=      5-min Rain = 0
KAI1 100037Z 23004KT M02/M04 A3035 RMK A01 T10201040  RH  087%=      5-min Rain = 0
KAI1 100038Z 23004KT M02/M04 A3035 RMK A01 T10201040  RH  087%=      5-min Rain = 0
KAI1 100039Z 23004KT M02/M04 A3035 RMK A01 T10211040  RH  087%=      5-min Rain = 0
KAI1 100040Z 24004KT M02/M04 A3035 RMK A01 T10211040  RH  087%=      5-min Rain = 0
KAI1 100041Z 24005KT M02/M04 A3035 RMK A01 T10221041  RH  087%=      5-min Rain = 0
KAI1 100042Z 24005KT M02/M04 A3035 RMK A01 T10221041  RH  087%=      5-min Rain = 0
KAI1 100043Z 24005KT M02/M04 A3035 RMK A01 T10231041  RH  087%=      5-min Rain = 0
KAI1 100044Z 24005KT M02/M04 A3035 RMK A01 T10221040  RH  088%=      5-min Rain = 0
KAI1 100045Z 24005KT M02/M04 A3035 RMK A01 T10221040  RH  087%=      5-min Rain = 0
KAI1 100046Z 24005KT M02/M04 A3035 RMK A01 T10221040  RH  087%=      5-min Rain = 0
KAI1 100047Z 24005KT M02/M04 A3035 RMK A01 T10221041  RH  087%=      5-min Rain = 0
KAI1 100048Z 24005KT M02/M04 A3035 RMK A01 T10221041  RH  087%=      5-min Rain = 0
KAI1 100049Z 25005KT M02/M04 A3035 RMK A01 T10221041  RH  087%=      5-min Rain = 0
KAI1 100050Z 25005KT M02/M04 A3035 RMK A01 T10231041  RH  087%=      5-min Rain = 0
KAI1 100051Z 25005KT M02/M04 A3036 RMK A01 T10231041  RH  087%=      5-min Rain = 0
KAI1 100052Z 25005KT M02/M04 A3036 RMK A01 T10231041  RH  088%=      5-min Rain = 0
KAI1 100053Z 25005KT M02/M04 A3036 RMK A01 T10221040  RH  088%=      5-min Rain = 0
KAI1 100054Z 25005KT M02/M04 A3036 RMK A01 T10221040  RH  087%=      5-min Rain = 0
KAI1 100055Z 25005KT M02/M04 A3036 RMK A01 T10221040  RH  087%=      5-min Rain = 0
KAI1 100056Z 25005KT M02/M04 A3036 RMK A01 T10221040  RH  087%=      5-min Rain = 0
KAI1 100057Z 25005KT M02/M04 A3036 RMK A01 T10211040  RH  087%=      5-min Rain = 0
KAI1 100058Z 26005KT M02/M04 A3036 RMK A01 T10221040  RH  087%=      5-min Rain = 0
KAI1 100059Z 26005KT M02/M04 A3036 RMK A01 T10221040  RH  087%=      5-min Rain = 0
KAI1 100100Z 26005KT M02/M04 A3036 RMK A01 T10221041  RH  087%=      5-min Rain = 0
KAI1 100101Z 26005KT M02/M04 A3036 RMK A01 T10221041  RH  087%=      5-min Rain = 0
KAI1 100102Z 26004KT M02/M04 A3036 RMK A01 T10221041  RH  087%=      5-min Rain = 0
KAI1 100103Z 26005KT M02/M04 A3036 RMK A01 T10231041  RH  087%=      5-min Rain = 0
KAI1 100104Z 27005KT M02/M04 A3036 RMK A01 T10231041  RH  088%=      5-min Rain = 0
KAI1 100105Z 27005KT M02/M04 A3036 RMK A01 T10231040  RH  088%=      5-min Rain = 0
KAI1 100106Z 27005KT M02/M04 A3036 RMK A01 T10241041  RH  088%=      5-min Rain = 0
KAI1 100107Z 27005KT M02/M04 A3036 RMK A01 T10241042  RH  088%=      5-min Rain = 0
KAI1 100108Z 28005KT M03/M04 A3036 RMK A01 T10261043  RH  088%=      5-min Rain = 0
KAI1 100109Z 28005KT M03/M04 A3036 RMK A01 T10271044  RH  088%=      5-min Rain = 0
KAI1 100110Z 28005KT M03/M04 A3036 RMK A01 T10271043  RH  089%=      5-min Rain = 0
KAI1 100111Z 29004KT M03/M04 A3036 RMK A01 T10271042  RH  089%=      5-min Rain = 0
KAI1 100112Z 29005KT M03/M04 A3036 RMK A01 T10271042  RH  089%=      5-min Rain = 0
KAI1 100113Z 30005KT M03/M04 A3037 RMK A01 T10281044  RH  089%=      5-min Rain = 0
KAI1 100114Z 30005KT M03/M04 A3037 RMK A01 T10291044  RH  089%=      5-min Rain = 0
KAI1 100115Z 29005KT M03/M04 A3037 RMK A01 T10281043  RH  090%=      5-min Rain = 0
KAI1 100116Z 29005KT M03/M04 A3037 RMK A01 T10291043  RH  090%=      5-min Rain = 0
KAI1 100117Z 29005KT M03/M04 A3037 RMK A01 T10291043  RH  090%=      5-min Rain = 0
KAI1 100118Z 29005KT M03/M04 A3037 RMK A01 T10291044  RH  089%=      5-min Rain = 0
KAI1 100119Z 29005KT M03/M05 A3037 RMK A01 T10301046  RH  089%=      5-min Rain = 0
KAI1 100120Z 29005KT M03/M05 A3037 RMK A01 T10311047  RH  089%=      5-min Rain = 0
KAI1 100121Z 28005KT M03/M05 A3036 RMK A01 T10311048  RH  089%=      5-min Rain = 0
KAI1 100122Z 28005KT M03/M05 A3036 RMK A01 T10321048  RH  089%=      5-min Rain = 0
KAI1 100123Z 28005KT M03/M05 A3036 RMK A01 T10321048  RH  089%=      5-min Rain = 0
KAI1 100124Z 28005KT M03/M05 A3036 RMK A01 T10331049  RH  089%=      5-min Rain = 0
KAI1 100125Z 29004KT M03/M05 A3037 RMK A01 T10331048  RH  089%=      5-min Rain = 0
KAI1 100126Z 29004KT M03/M05 A3037 RMK A01 T10341049  RH  089%=      5-min Rain = 0
KAI1 100127Z 29005KT M03/M05 A3037 RMK A01 T10341049  RH  089%=      5-min Rain = 0
KAI1 100128Z 28005KT M04/M05 A3037 RMK A01 T10351049  RH  090%=      5-min Rain = 0
KAI1 100129Z 28005KT M04/M05 A3037 RMK A01 T10351049  RH  090%=      5-min Rain = 0
KAI1 100130Z 28005KT M04/M05 A3037 RMK A01 T10351049  RH  090%=      5-min Rain = 0
KAI1 100131Z 27006KT M04/M05 A3037 RMK A01 T10351048  RH  091%=      5-min Rain = 0
KAI1 100132Z 27006KT M04/M05 A3037 RMK A01 T10351048  RH  091%=      5-min Rain = 0
KAI1 100133Z 27006KT M03/M05 A3037 RMK A01 T10341048  RH  090%=      5-min Rain = 0
KAI1 100134Z 27006KT M03/M05 A3037 RMK A01 T10341048  RH  090%=      5-min Rain = 0
KAI1 100135Z 27006KT M04/M05 A3037 RMK A01 T10351049  RH  090%=      5-min Rain = 0
KAI1 100136Z 27006KT M04/M05 A3037 RMK A01 T10361050  RH  090%=      5-min Rain = 0
KAI1 100137Z 27006KT M04/M05 A3037 RMK A01 T10361051  RH  090%=      5-min Rain = 0
KAI1 100138Z 27005KT M04/M05 A3037 RMK A01 T10381053  RH  089%=      5-min Rain = 0
KAI1 100139Z 27005KT M04/M05 A3037 RMK A01 T10391054  RH  089%=      5-min Rain = 0
KAI1 100140Z 27005KT M04/M05 A3037 RMK A01 T10401054  RH  090%=      5-min Rain = 0
KAI1 100141Z 27005KT M04/M05 A3037 RMK A01 T10411054  RH  091%=      5-min Rain = 0
KAI1 100142Z 27005KT M04/M05 A3037 RMK A01 T10411053  RH  091%=      5-min Rain = 0
KAI1 100143Z 27005KT M04/M05 A3037 RMK A01 T10421053  RH  092%=      5-min Rain = 0
KAI1 100144Z 27005KT M04/M05 A3037 RMK A01 T10421053  RH  092%=      5-min Rain = 0
KAI1 100145Z 27005KT M04/M05 A3037 RMK A01 T10421053  RH  092%=      5-min Rain = 0
KAI1 100146Z 27005KT M04/M05 A3036 RMK A01 T10421053  RH  092%=      5-min Rain = 0
KAI1 100147Z 27005KT M04/M06 A3036 RMK A01 T10441055  RH  092%=      5-min Rain = 0
KAI1 100148Z 27005KT M05/M06 A3036 RMK A01 T10461057  RH  092%=      5-min Rain = 0
KAI1 100149Z 27005KT M05/M06 A3036 RMK A01 T10471058  RH  092%=      5-min Rain = 0
KAI1 100150Z 27005KT M05/M06 A3036 RMK A01 T10481059  RH  092%=      5-min Rain = 0
KAI1 100151Z 28005KT M05/M06 A3036 RMK A01 T10491059  RH  092%=      5-min Rain = 0
KAI1 100152Z 28006KT M05/M06 A3037 RMK A01 T10501060  RH  092%=      5-min Rain = 0
KAI1 100153Z 28005KT M05/M06 A3037 RMK A01 T10501060  RH  093%=      5-min Rain = 0
KAI1 100154Z 29006KT M05/M06 A3037 RMK A01 T10511061  RH  093%=      5-min Rain = 0
KAI1 100155Z 29005KT M05/M06 A3037 RMK A01 T10511060  RH  093%=      5-min Rain = 0
KAI1 100156Z 29005KT M05/M06 A3037 RMK A01 T10511060  RH  094%=      5-min Rain = 0
KAI1 100157Z 29005KT M05/M06 A3037 RMK A01 T10511059  RH  094%=      5-min Rain = 0
KAI1 100158Z 28005KT M05/M06 A3037 RMK A01 T10511059  RH  094%=      5-min Rain = 0
KAI1 100159Z 28005KT M05/M06 A3037 RMK A01 T10511059  RH  094%=      5-min Rain = 0
KAI1 100200Z 28005KT M05/M06 A3037 RMK A01 T10501058  RH  094%=      5-min Rain = 0
KAI1 100201Z 28005KT M05/M06 A3037 RMK A01 T10501057  RH  095%=      5-min Rain = 0
KAI1 100202Z 28005KT M05/M06 A3037 RMK A01 T10491057  RH  095%=      5-min Rain = 0
KAI1 100203Z 28005KT M05/M06 A3037 RMK A01 T10491057  RH  095%=      5-min Rain = 0
KAI1 100204Z 28005KT M05/M06 A3037 RMK A01 T10491056  RH  095%=      5-min Rain = 0
KAI1 100205Z 28005KT M05/M06 A3037 RMK A01 T10481056  RH  094%=      5-min Rain = 0
KAI1 100206Z 29006KT M05/M06 A3037 RMK A01 T10481056  RH  094%=      5-min Rain = 0
KAI1 100207Z 29006KT M05/M06 A3037 RMK A01 T10481057  RH  094%=      5-min Rain = 0
KAI1 100208Z 29006KT M05/M06 A3037 RMK A01 T10491058  RH  094%=      5-min Rain = 0
KAI1 100209Z 29006KT M05/M06 A3037 RMK A01 T10501060  RH  093%=      5-min Rain = 0
KAI1 100210Z 29006KT M05/M06 A3037 RMK A01 T10511060  RH  093%=      5-min Rain = 0
KAI1 100211Z 28006KT M05/M06 A3037 RMK A01 T10511060  RH  093%=      5-min Rain = 0
KAI1 100212Z 28007KT M05/M06 A3037 RMK A01 T10511060  RH  093%=      5-min Rain = 0
KAI1 100213Z 28007KT M05/M06 A3037 RMK A01 T10511060  RH  094%=      5-min Rain = 0
KAI1 100214Z 28007KT M05/M06 A3037 RMK A01 T10511060  RH  093%=      5-min Rain = 0
KAI1 100215Z 28007KT M05/M06 A3037 RMK A01 T10511060  RH  093%=      5-min Rain = 0
KAI1 100216Z 28006KT M05/M06 A3037 RMK A01 T10511061  RH  093%=      5-min Rain = 0
KAI1 100217Z 28006KT M05/M06 A3037 RMK A01 T10521061  RH  093%=      5-min Rain = 0
KAI1 100218Z 28006KT M05/M06 A3037 RMK A01 T10521061  RH  093%=      5-min Rain = 0
KAI1 100219Z 28006KT M05/M06 A3037 RMK A01 T10521061  RH  094%=      5-min Rain = 0
KAI1 100220Z 28006KT M05/M06 A3037 RMK A01 T10521060  RH  094%=      5-min Rain = 0
KAI1 100221Z 28006KT M05/M06 A3037 RMK A01 T10511059  RH  094%=      5-min Rain = 0
KAI1 100222Z 28007KT M05/M06 A3037 RMK A01 T10501057  RH  095%=      5-min Rain = 0
KAI1 100223Z 28007KT M05/M06 A3037 RMK A01 T10481055  RH  095%=      5-min Rain = 0
KAI1 100224Z 28007KT M05/M05 A3037 RMK A01 T10471053  RH  095%=      5-min Rain = 0
KAI1 100225Z 28007KT M05/M05 A3037 RMK A01 T10461054  RH  094%=      5-min Rain = 0
KAI1 100226Z 28006KT M05/M06 A3037 RMK A01 T10461055  RH  094%=      5-min Rain = 0
KAI1 100227Z 28006KT M05/M06 A3037 RMK A01 T10471056  RH  093%=      5-min Rain = 0
KAI1 100228Z 28007KT M05/M06 A3037 RMK A01 T10471057  RH  093%=      5-min Rain = 0
KAI1 100229Z 28007KT M05/M06 A3037 RMK A01 T10481059  RH  092%=      5-min Rain = 0
KAI1 100230Z 28007KT M05/M06 A3037 RMK A01 T10501061  RH  092%=      5-min Rain = 0
KAI1 100231Z 28007KT M05/M06 A3037 RMK A01 T10511063  RH  091%=      5-min Rain = 0
KAI1 100232Z 28007KT M05/M07 A3037 RMK A01 T10531065  RH  091%=      5-min Rain = 0
KAI1 100233Z 28007KT M06/M07 A3037 RMK A01 T10551066  RH  091%=      5-min Rain = 0
KAI1 100234Z 28006KT M06/M07 A3037 RMK A01 T10561067  RH  092%=      5-min Rain = 0
KAI1 100235Z 28007KT M06/M07 A3038 RMK A01 T10561066  RH  092%=      5-min Rain = 0
KAI1 100236Z 28007KT M06/M07 A3038 RMK A01 T10561066  RH  093%=      5-min Rain = 0
KAI1 100237Z 28007KT M06/M07 A3038 RMK A01 T10561066  RH  093%=      5-min Rain = 0
KAI1 100238Z 28006KT M06/M07 A3038 RMK A01 T10571067  RH  093%=      5-min Rain = 0
KAI1 100239Z 28006KT M06/M07 A3038 RMK A01 T10571066  RH  093%=      5-min Rain = 0
KAI1 100240Z 28006KT M06/M07 A3038 RMK A01 T10571066  RH  093%=      5-min Rain = 0
KAI1 100241Z 28006KT M06/M07 A3038 RMK A01 T10571066  RH  093%=      5-min Rain = 0
KAI1 100242Z 28006KT M06/M07 A3038 RMK A01 T10571066  RH  094%=      5-min Rain = 0
KAI1 100243Z 28006KT M06/M07 A3038 RMK A01 T10571065  RH  094%=      5-min Rain = 0
KAI1 100244Z 27006KT M06/M06 A3038 RMK A01 T10561064  RH  094%=      5-min Rain = 0
KAI1 100245Z 27006KT M06/M06 A3038 RMK A01 T10551063  RH  094%=      5-min Rain = 0
KAI1 100246Z 27006KT M06/M06 A3038 RMK A01 T10551062  RH  094%=      5-min Rain = 0
KAI1 100247Z 27006KT M05/M06 A3038 RMK A01 T10541062  RH  094%=      5-min Rain = 0
KAI1 100248Z 26007KT M06/M06 A3038 RMK A01 T10551063  RH  094%=      5-min Rain = 0
KAI1 100249Z 26006KT M06/M07 A3037 RMK A01 T10561065  RH  094%=      5-min Rain = 0
KAI1 100250Z 26006KT M06/M06 A3037 RMK A01 T10561064  RH  094%=      5-min Rain = 0
KAI1 100251Z 26006KT M06/M06 A3037 RMK A01 T10561064  RH  094%=      5-min Rain = 0
KAI1 100252Z 26006KT M06/M06 A3037 RMK A01 T10551064  RH  094%=      5-min Rain = 0
KAI1 100253Z 27006KT M06/M06 A3037 RMK A01 T10561064  RH  094%=      5-min Rain = 0
KAI1 100254Z 27006KT M06/M06 A3037 RMK A01 T10551064  RH  094%=      5-min Rain = 0
KAI1 100255Z 27007KT M06/M06 A3038 RMK A01 T10551064  RH  094%=      5-min Rain = 0
KAI1 100256Z 27007KT M06/M06 A3038 RMK A01 T10561064  RH  094%=      5-min Rain = 0
KAI1 100257Z 27006KT M06/M06 A3038 RMK A01 T10551063  RH  094%=      5-min Rain = 0
KAI1 100258Z 28006KT M05/M06 A3038 RMK A01 T10541061  RH  095%=      5-min Rain = 0
KAI1 100259Z 28007KT M05/M06 A3038 RMK A01 T10521059  RH  095%=      5-min Rain = 0
KAI1 100300Z 28007KT M05/M06 A3038 RMK A01 T10521059  RH  095%=      5-min Rain = 0
KAI1 100301Z 28007KT M05/M06 A3038 RMK A01 T10511058  RH  095%=      5-min Rain = 0
KAI1 100302Z 28007KT M05/M06 A3038 RMK A01 T10511059  RH  094%=      5-min Rain = 0
KAI1 100303Z 28007KT M05/M06 A3038 RMK A01 T10501059  RH  093%=      5-min Rain = 0
KAI1 100304Z 28007KT M05/M06 A3038 RMK A01 T10491057  RH  094%=      5-min Rain = 0
KAI1 100305Z 28008KT M05/M06 A3038 RMK A01 T10461055  RH  094%=      5-min Rain = 0
KAI1 100306Z 28008KT M04/M05 A3038 RMK A01 T10441052  RH  094%=      5-min Rain = 0
KAI1 100307Z 28008KT M04/M05 A3038 RMK A01 T10431052  RH  093%=      5-min Rain = 0
KAI1 100308Z 28008KT M04/M05 A3038 RMK A01 T10421052  RH  092%=      5-min Rain = 0
KAI1 100309Z 28008KT M04/M05 A3038 RMK A01 T10411052  RH  092%=      5-min Rain = 0
KAI1 100310Z 28008KT M04/M05 A3038 RMK A01 T10401052  RH  091%=      5-min Rain = 0
KAI1 100311Z 28008KT M04/M05 A3038 RMK A01 T10401053  RH  091%=      5-min Rain = 0
KAI1 100312Z 28008KT M04/M05 A3038 RMK A01 T10401053  RH  091%=      5-min Rain = 0
KAI1 100313Z 28008KT M04/M05 A3038 RMK A01 T10401053  RH  091%=      5-min Rain = 0
KAI1 100314Z 28008KT M04/M05 A3038 RMK A01 T10401053  RH  090%=      5-min Rain = 0
KAI1 100315Z 28007KT M04/M05 A3038 RMK A01 T10401053  RH  090%=      5-min Rain = 0
KAI1 100316Z 28007KT M04/M05 A3038 RMK A01 T10401053  RH  090%=      5-min Rain = 0
KAI1 100317Z 28007KT M04/M05 A3038 RMK A01 T10401053  RH  090%=      5-min Rain = 0
KAI1 100318Z 28007KT M04/M05 A3038 RMK A01 T10401053  RH  090%=      5-min Rain = 0
KAI1 100319Z 28007KT M04/M05 A3038 RMK A01 T10401053  RH  090%=      5-min Rain = 0
KAI1 100320Z 28007KT M04/M05 A3038 RMK A01 T10411054  RH  090%=      5-min Rain = 0
KAI1 100321Z 28008KT M04/M06 A3038 RMK A01 T10411055  RH  090%=      5-min Rain = 0
KAI1 100322Z 28008KT M04/M06 A3038 RMK A01 T10411055  RH  090%=      5-min Rain = 0
KAI1 100323Z 28007KT M04/M06 A3038 RMK A01 T10421055  RH  090%=      5-min Rain = 0
KAI1 100324Z 28007KT M04/M06 A3038 RMK A01 T10421056  RH  090%=      5-min Rain = 0
KAI1 100325Z 28007KT M04/M06 A3038 RMK A01 T10431057  RH  090%=      5-min Rain = 0
KAI1 100326Z 28008KT M04/M06 A3038 RMK A01 T10431057  RH  091%=      5-min Rain = 0
KAI1 100327Z 28008KT M04/M06 A3038 RMK A01 T10431056  RH  091%=      5-min Rain = 0
KAI1 100328Z 28008KT M04/M06 A3038 RMK A01 T10431055  RH  091%=      5-min Rain = 0
KAI1 100329Z 28008KT M04/M06 A3038 RMK A01 T10431055  RH  091%=      5-min Rain = 0
KAI1 100330Z 28007KT M04/M05 A3038 RMK A01 T10421054  RH  091%=      5-min Rain = 0
KAI1 100331Z 28007KT M04/M06 A3038 RMK A01 T10421055  RH  091%=      5-min Rain = 0
KAI1 100332Z 28007KT M04/M06 A3038 RMK A01 T10421055  RH  091%=      5-min Rain = 0
KAI1 100333Z 28007KT M04/M06 A3038 RMK A01 T10421055  RH  091%=      5-min Rain = 0
KAI1 100334Z 28007KT M04/M06 A3038 RMK A01 T10421056  RH  091%=      5-min Rain = 0
KAI1 100335Z 28007KT M04/M06 A3038 RMK A01 T10431056  RH  091%=      5-min Rain = 0
KAI1 100336Z 28007KT M04/M06 A3038 RMK A01 T10431056  RH  091%=      5-min Rain = 0
KAI1 100337Z 28007KT M04/M06 A3038 RMK A01 T10431056  RH  091%=      5-min Rain = 0
KAI1 100338Z 28007KT M04/M06 A3038 RMK A01 T10431055  RH  091%=      5-min Rain = 0
KAI1 100339Z 28006KT M04/M06 A3038 RMK A01 T10431055  RH  091%=      5-min Rain = 0
KAI1 100340Z 28006KT M04/M06 A3038 RMK A01 T10431056  RH  091%=      5-min Rain = 0
KAI1 100341Z 28006KT M04/M06 A3038 RMK A01 T10431056  RH  091%=      5-min Rain = 0
KAI1 100342Z 28006KT M04/M06 A3038 RMK A01 T10431056  RH  091%=      5-min Rain = 0
KAI1 100343Z 28006KT M04/M06 A3038 RMK A01 T10431056  RH  091%=      5-min Rain = 0
KAI1 100344Z 28007KT M04/M06 A3038 RMK A01 T10441057  RH  091%=      5-min Rain = 0
KAI1 100345Z 28007KT M05/M06 A3038 RMK A01 T10451058  RH  091%=      5-min Rain = 0
KAI1 100346Z 28007KT M05/M06 A3038 RMK A01 T10451058  RH  091%=      5-min Rain = 0
KAI1 100347Z 29007KT M05/M06 A3038 RMK A01 T10451058  RH  091%=      5-min Rain = 0
KAI1 100348Z 28007KT M05/M06 A3037 RMK A01 T10461058  RH  091%=      5-min Rain = 0
KAI1 100349Z 28006KT M05/M06 A3037 RMK A01 T10461058  RH  091%=      5-min Rain = 0
KAI1 100350Z 28007KT M05/M06 A3037 RMK A01 T10461058  RH  091%=      5-min Rain = 0
KAI1 100351Z 28007KT M05/M06 A3037 RMK A01 T10461058  RH  091%=      5-min Rain = 0
KAI1 100352Z 28007KT M05/M06 A3037 RMK A01 T10461058  RH  092%=      5-min Rain = 0
KAI1 100353Z 28007KT M05/M06 A3037 RMK A01 T10461058  RH  092%=      5-min Rain = 0
KAI1 100354Z 28007KT M05/M06 A3037 RMK A01 T10471058  RH  091%=      5-min Rain = 0
KAI1 100355Z 28007KT M05/M06 A3037 RMK A01 T10461058  RH  091%=      5-min Rain = 0
KAI1 100356Z 28007KT M05/M06 A3037 RMK A01 T10471059  RH  091%=      5-min Rain = 0
KAI1 100357Z 28006KT M05/M06 A3037 RMK A01 T10471060  RH  091%=      5-min Rain = 0
KAI1 100358Z 28006KT M05/M06 A3037 RMK A01 T10481061  RH  091%=      5-min Rain = 0
KAI1 100359Z 28007KT M05/M06 A3037 RMK A01 T10501063  RH  091%=      5-min Rain = 0
KAI1 100400Z 28007KT M05/M06 A3037 RMK A01 T10501063  RH  091%=      5-min Rain = 0
KAI1 100401Z 28007KT M05/M06 A3037 RMK A01 T10511063  RH  091%=      5-min Rain = 0
KAI1 100402Z 28007KT M05/M06 A3037 RMK A01 T10511062  RH  092%=      5-min Rain = 0
KAI1 100403Z 28007KT M05/M06 A3037 RMK A01 T10501060  RH  092%=      5-min Rain = 0
KAI1 100404Z 29007KT M05/M06 A3037 RMK A01 T10481058  RH  093%=      5-min Rain = 0
KAI1 100405Z 29008KT M05/M06 A3037 RMK A01 T10481058  RH  093%=      5-min Rain = 0
KAI1 100406Z 29008KT M05/M06 A3037 RMK A01 T10461056  RH  093%=      5-min Rain = 0
KAI1 100407Z 29008KT M05/M06 A3037 RMK A01 T10451055  RH  093%=      5-min Rain = 0
KAI1 100408Z 29008KT M04/M05 A3037 RMK A01 T10441054  RH  093%=      5-min Rain = 0
KAI1 100409Z 28008KT M04/M05 A3037 RMK A01 T10421052  RH  092%=      5-min Rain = 0
KAI1 100410Z 29008KT M04/M05 A3037 RMK A01 T10401051  RH  092%=      5-min Rain = 0
KAI1 100411Z 28008KT M04/M05 A3037 RMK A01 T10391051  RH  092%=      5-min Rain = 0
KAI1 100412Z 28008KT M04/M05 A3037 RMK A01 T10381050  RH  091%=      5-min Rain = 0
KAI1 100413Z 28008KT M04/M05 A3037 RMK A01 T10381051  RH  091%=      5-min Rain = 0
KAI1 100414Z 28008KT M04/M05 A3037 RMK A01 T10381051  RH  090%=      5-min Rain = 0
KAI1 100415Z 28008KT M04/M05 A3037 RMK A01 T10381052  RH  090%=      5-min Rain = 0
KAI1 100416Z 28008KT M04/M05 A3037 RMK A01 T10381052  RH  090%=      5-min Rain = 0
KAI1 100417Z 28008KT M04/M05 A3038 RMK A01 T10381053  RH  090%=      5-min Rain = 0
KAI1 100418Z 28008KT M04/M05 A3038 RMK A01 T10391053  RH  090%=      5-min Rain = 0
KAI1 100419Z 28008KT M04/M05 A3038 RMK A01 T10391053  RH  090%=      5-min Rain = 0
KAI1 100420Z 28008KT M04/M05 A3038 RMK A01 T10391054  RH  090%=      5-min Rain = 0
KAI1 100421Z 28008KT M04/M05 A3038 RMK A01 T10401054  RH  090%=      5-min Rain = 0
KAI1 100422Z 28008KT M04/M05 A3038 RMK A01 T10401054  RH  090%=      5-min Rain = 0
KAI1 100423Z 28008KT M04/M05 A3038 RMK A01 T10401054  RH  090%=      5-min Rain = 0
KAI1 100424Z 28008KT M04/M05 A3038 RMK A01 T10401054  RH  090%=      5-min Rain = 0
KAI1 100425Z 28009KT M04/M05 A3038 RMK A01 T10401053  RH  090%=      5-min Rain = 0
KAI1 100426Z 28009KT M04/M05 A3038 RMK A01 T10391053  RH  090%=      5-min Rain = 0
KAI1 100427Z 28009KT M04/M05 A3038 RMK A01 T10391053  RH  090%=      5-min Rain = 0
KAI1 100428Z 28009KT M04/M05 A3038 RMK A01 T10391053  RH  090%=      5-min Rain = 0
KAI1 100429Z 29009KT M04/M05 A3038 RMK A01 T10391052  RH  090%=      5-min Rain = 0
KAI1 100430Z 29009KT M04/M05 A3038 RMK A01 T10381052  RH  090%=      5-min Rain = 0
KAI1 100431Z 29009KT M04/M05 A3038 RMK A01 T10381051  RH  091%=      5-min Rain = 0
KAI1 100432Z 29009KT M04/M05 A3038 RMK A01 T10371050  RH  090%=      5-min Rain = 0
KAI1 100433Z 29008KT M04/M05 A3038 RMK A01 T10361050  RH  090%=      5-min Rain = 0
KAI1 100434Z 29008KT M04/M05 A3038 RMK A01 T10361049  RH  090%=      5-min Rain = 0
KAI1 100435Z 29008KT M04/M05 A3038 RMK A01 T10351049  RH  090%=      5-min Rain = 0
KAI1 100436Z 29008KT M04/M05 A3038 RMK A01 T10351049  RH  090%=      5-min Rain = 0
KAI1 100437Z 29007KT M04/M05 A3038 RMK A01 T10351049  RH  090%=      5-min Rain = 0
KAI1 100438Z 28007KT M04/M05 A3038 RMK A01 T10351049  RH  090%=      5-min Rain = 0
KAI1 100439Z 27007KT M04/M05 A3038 RMK A01 T10351049  RH  089%=      5-min Rain = 0
KAI1 100440Z 27006KT M04/M05 A3038 RMK A01 T10351051  RH  089%=      5-min Rain = 0
KAI1 100441Z 26007KT M04/M06 A3038 RMK A01 T10391057  RH  088%=      5-min Rain = 0
KAI1 100442Z 27007KT M04/M06 A3038 RMK A01 T10421060  RH  088%=      5-min Rain = 0
KAI1 100443Z 27007KT M04/M06 A3038 RMK A01 T10431059  RH  089%=      5-min Rain = 0
KAI1 100444Z 27007KT M04/M06 A3038 RMK A01 T10441058  RH  090%=      5-min Rain = 0
KAI1 100445Z 27007KT M04/M06 A3038 RMK A01 T10441057  RH  090%=      5-min Rain = 0
KAI1 100446Z 27008KT M04/M06 A3038 RMK A01 T10441057  RH  091%=      5-min Rain = 0
KAI1 100447Z 28008KT M04/M06 A3038 RMK A01 T10431055  RH  091%=      5-min Rain = 0
KAI1 100448Z 28009KT M04/M05 A3038 RMK A01 T10421054  RH  092%=      5-min Rain = 0
KAI1 100449Z 28008KT M04/M05 A3038 RMK A01 T10401052  RH  092%=      5-min Rain = 0
KAI1 100450Z 28008KT M04/M05 A3038 RMK A01 T10391050  RH  092%=      5-min Rain = 0
KAI1 100451Z 28008KT M04/M05 A3038 RMK A01 T10371049  RH  092%=      5-min Rain = 0
KAI1 100452Z 28008KT M04/M05 A3038 RMK A01 T10361048  RH  092%=      5-min Rain = 0
KAI1 100453Z 28007KT M04/M05 A3038 RMK A01 T10361048  RH  091%=      5-min Rain = 0
KAI1 100454Z 28007KT M04/M05 A3038 RMK A01 T10361049  RH  091%=      5-min Rain = 0
KAI1 100455Z 29007KT M04/M05 A3038 RMK A01 T10351049  RH  090%=      5-min Rain = 0
KAI1 100456Z 29007KT M04/M05 A3038 RMK A01 T10351050  RH  090%=      5-min Rain = 0
KAI1 100457Z 29007KT M04/M05 A3038 RMK A01 T10361050  RH  090%=      5-min Rain = 0
KAI1 100458Z 29007KT M04/M05 A3038 RMK A01 T10361051  RH  090%=      5-min Rain = 0
KAI1 100459Z 30007KT M04/M05 A3038 RMK A01 T10361050  RH  090%=      5-min Rain = 0
KAI1 100500Z 30008KT M04/M05 A3038 RMK A01 T10361050  RH  090%=      5-min Rain = 0
KAI1 100501Z 30008KT M04/M05 A3038 RMK A01 T10361050  RH  090%=      5-min Rain = 0
KAI1 100502Z 30008KT M04/M05 A3038 RMK A01 T10361049  RH  090%=      5-min Rain = 0
KAI1 100503Z 30007KT M04/M05 A3038 RMK A01 T10351048  RH  091%=      5-min Rain = 0
KAI1 100504Z 30007KT M04/M05 A3038 RMK A01 T10351049  RH  090%=      5-min Rain = 0
KAI1 100505Z 29007KT M04/M05 A3038 RMK A01 T10351049  RH  090%=      5-min Rain = 0
KAI1 100506Z 29006KT M04/M05 A3038 RMK A01 T10351049  RH  090%=      5-min Rain = 0
KAI1 100507Z 29006KT M04/M05 A3038 RMK A01 T10361050  RH  090%=      5-min Rain = 0
KAI1 100508Z 29005KT M04/M05 A3038 RMK A01 T10371051  RH  090%=      5-min Rain = 0
KAI1 100509Z 29005KT M04/M05 A3038 RMK A01 T10381052  RH  090%=      5-min Rain = 0
KAI1 100510Z 29005KT M04/M05 A3038 RMK A01 T10391053  RH  090%=      5-min Rain = 0
KAI1 100511Z 28005KT M04/M05 A3038 RMK A01 T10401054  RH  090%=      5-min Rain = 0
KAI1 100512Z 28006KT M04/M06 A3038 RMK A01 T10421057  RH  089%=      5-min Rain = 0
KAI1 100513Z 28006KT M05/M06 A3038 RMK A01 T10451061  RH  089%=      5-min Rain = 0
KAI1 100514Z 28006KT M05/M06 A3038 RMK A01 T10471063  RH  089%=      5-min Rain = 0
KAI1 100515Z 28006KT M05/M06 A3038 RMK A01 T10491064  RH  090%=      5-min Rain = 0
KAI1 100516Z 28006KT M05/M06 A3038 RMK A01 T10501063  RH  090%=      5-min Rain = 0
KAI1 100517Z 28006KT M05/M06 A3038 RMK A01 T10511063  RH  091%=      5-min Rain = 0
KAI1 100518Z 28006KT M05/M06 A3038 RMK A01 T10501062  RH  092%=      5-min Rain = 0
KAI1 100519Z 29006KT M05/M06 A3038 RMK A01 T10511062  RH  092%=      5-min Rain = 0
KAI1 100520Z 29006KT M05/M06 A3038 RMK A01 T10511061  RH  092%=      5-min Rain = 0
KAI1 100521Z 29006KT M05/M06 A3038 RMK A01 T10491058  RH  094%=      5-min Rain = 0
KAI1 100522Z 29006KT M05/M06 A3038 RMK A01 T10471055  RH  094%=      5-min Rain = 0
KAI1 100523Z 30006KT M05/M05 A3038 RMK A01 T10461054  RH  094%=      5-min Rain = 0
KAI1 100524Z 30006KT M05/M05 A3038 RMK A01 T10451054  RH  094%=      5-min Rain = 0
KAI1 100525Z 30006KT M05/M05 A3038 RMK A01 T10451054  RH  094%=      5-min Rain = 0
KAI1 100526Z 29005KT M05/M06 A3038 RMK A01 T10461055  RH  093%=      5-min Rain = 0
KAI1 100527Z 29005KT M05/M06 A3038 RMK A01 T10461056  RH  093%=      5-min Rain = 0
KAI1 100528Z 28006KT M05/M06 A3038 RMK A01 T10471057  RH  093%=      5-min Rain = 0
KAI1 100529Z 28006KT M05/M06 A3038 RMK A01 T10471057  RH  093%=      5-min Rain = 0
KAI1 100530Z 28006KT M05/M06 A3038 RMK A01 T10471057  RH  093%=      5-min Rain = 0
KAI1 100531Z 27005KT M05/M06 A3038 RMK A01 T10491059  RH  092%=      5-min Rain = 0
KAI1 100532Z 27005KT M05/M06 A3038 RMK A01 T10511063  RH  091%=      5-min Rain = 0
KAI1 100533Z 27005KT M05/M07 A3038 RMK A01 T10531065  RH  091%=      5-min Rain = 0
KAI1 100534Z 27005KT M05/M07 A3038 RMK A01 T10541065  RH  092%=      5-min Rain = 0
KAI1 100535Z 27005KT M06/M07 A3038 RMK A01 T10551065  RH  092%=      5-min Rain = 0
KAI1 100536Z 27005KT M06/M07 A3038 RMK A01 T10561066  RH  093%=      5-min Rain = 0
KAI1 100537Z 27005KT M06/M07 A3038 RMK A01 T10561066  RH  093%=      5-min Rain = 0
KAI1 100538Z 27005KT M06/M07 A3038 RMK A01 T10571067  RH  093%=      5-min Rain = 0
KAI1 100539Z 28005KT M06/M07 A3038 RMK A01 T10571066  RH  093%=      5-min Rain = 0
KAI1 100540Z 28005KT M06/M07 A3038 RMK A01 T10571066  RH  094%=      5-min Rain = 0
KAI1 100541Z 27005KT M06/M06 A3038 RMK A01 T10561064  RH  094%=      5-min Rain = 0
KAI1 100542Z 28006KT M06/M06 A3038 RMK A01 T10551062  RH  095%=      5-min Rain = 0
KAI1 100543Z 27006KT M05/M06 A3038 RMK A01 T10541061  RH  095%=      5-min Rain = 0
KAI1 100544Z 27006KT M05/M06 A3038 RMK A01 T10541061  RH  095%=      5-min Rain = 0
KAI1 100545Z 27007KT M05/M06 A3038 RMK A01 T10541061  RH  095%=      5-min Rain = 0
KAI1 100546Z 28007KT M05/M06 A3038 RMK A01 T10541062  RH  095%=      5-min Rain = 0
KAI1 100547Z 28007KT M05/M06 A3038 RMK A01 T10541062  RH  095%=      5-min Rain = 0
KAI1 100548Z 28008KT M05/M06 A3038 RMK A01 T10531060  RH  095%=      5-min Rain = 0
KAI1 100549Z 28008KT M05/M06 A3038 RMK A01 T10521059  RH  095%=      5-min Rain = 0
KAI1 100550Z 28008KT M05/M06 A3038 RMK A01 T10521059  RH  095%=      5-min Rain = 0
KAI1 100551Z 28008KT M05/M06 A3038 RMK A01 T10521058  RH  095%=      5-min Rain = 0
KAI1 100552Z 28007KT M05/M06 A3038 RMK A01 T10511058  RH  095%=      5-min Rain = 0
KAI1 100553Z 28008KT M05/M06 A3038 RMK A01 T10511059  RH  094%=      5-min Rain = 0
KAI1 100554Z 28008KT M05/M06 A3038 RMK A01 T10521060  RH  094%=      5-min Rain = 0
KAI1 100555Z 28008KT M05/M06 A3038 RMK A01 T10511059  RH  095%=      5-min Rain = 0
KAI1 100556Z 29007KT M05/M06 A3038 RMK A01 T10491055  RH  095%=      5-min Rain = 0
KAI1 100557Z 28007KT M05/M05 A3038 RMK A01 T10461053  RH  095%=      5-min Rain = 0
KAI1 100558Z 29007KT M05/M05 A3038 RMK A01 T10451051  RH  095%=      5-min Rain = 0
KAI1 100559Z 29008KT M04/M05 A3038 RMK A01 T10441051  RH  095%=      5-min Rain = 0

Page generated in 0.1446 seconds.